Time,TemperatureF,DewpointF,PressureIn,WindDirection,WindDirectionDegrees,WindSpeedMPH,WindSpeedGustMPH,Humidity,HourlyPrecipIn,Conditions,Clouds,dailyrainin,SoftwareType,DateUTC
2013-04-24 00:00:00,52.6,12.6,29.81,N/A,-737280,0.0,0.0,20,0.00,,,0.00,Wunderground v.1.13,2013-04-24 07:00:00,
2013-04-24 00:02:00,52.6,12.6,29.81,N/A,-737280,0.0,0.0,20,0.00,,,0.00,Wunderground v.1.13,2013-04-24 07:02:00,
2013-04-24 00:04:00,52.6,12.6,29.81,N/A,-737280,0.0,0.0,20,0.00,,,0.00,Wunderground v.1.13,2013-04-24 07:04:00,
2013-04-24 00:08:00,52.6,12.6,29.81,N/A,-737280,0.0,0.0,20,0.00,,,0.00,Wunderground v.1.13,2013-04-24 07:08:00,
2013-04-24 00:12:00,52.6,12.6,29.81,N/A,-737280,0.0,0.0,20,0.00,,,0.00,Wunderground v.1.13,2013-04-24 07:12:00,
2013-04-24 00:16:00,52.6,12.6,29.81,N/A,-737280,0.0,0.0,20,0.00,,,0.00,Wunderground v.1.13,2013-04-24 07:16:00,
2013-04-24 00:18:00,52.6,12.6,29.81,N/A,-737280,0.0,0.0,20,0.00,,,0.00,Wunderground v.1.13,2013-04-24 07:18:00,
2013-04-24 00:20:00,52.6,12.6,29.81,N/A,-737280,0.0,0.0,20,0.00,,,0.00,Wunderground v.1.13,2013-04-24 07:20:00,
2013-04-24 00:22:00,52.6,12.6,29.81,N/A,-737280,0.0,0.0,20,0.00,,,0.00,Wunderground v.1.13,2013-04-24 07:22:00,
2013-04-24 00:24:00,51.4,14.8,29.81,West,270,0.0,1.0,23,0.00,,,0.00,Wunderground v.1.13,2013-04-24 07:24:00,
2013-04-24 00:26:00,51.4,14.8,29.81,West,270,0.0,1.0,23,0.00,,,0.00,Wunderground v.1.13,2013-04-24 07:26:00,
2013-04-24 00:28:00,51.4,14.8,29.81,West,270,0.0,1.0,23,0.00,,,0.00,Wunderground v.1.13,2013-04-24 07:28:00,
2013-04-24 00:30:00,51.4,14.8,29.81,West,270,0.0,1.0,23,0.00,,,0.00,Wunderground v.1.13,2013-04-24 07:30:00,
2013-04-24 00:32:00,51.4,14.8,29.81,West,270,0.0,1.0,23,0.00,,,0.00,Wunderground v.1.13,2013-04-24 07:32:00,
2013-04-24 00:34:00,51.4,14.8,29.81,West,270,0.0,1.0,23,0.00,,,0.00,Wunderground v.1.13,2013-04-24 07:34:00,
2013-04-24 00:36:00,51.4,14.8,29.81,West,270,0.0,1.0,23,0.00,,,0.00,Wunderground v.1.13,2013-04-24 07:36:00,
2013-04-24 00:38:00,51.0,15.4,29.81,West,270,0.0,1.0,24,0.00,,,0.00,Wunderground v.1.13,2013-04-24 07:38:00,
2013-04-24 00:40:00,51.0,15.4,29.81,West,270,0.0,1.0,24,0.00,,,0.00,Wunderground v.1.13,2013-04-24 07:40:00,
2013-04-24 00:42:00,51.0,15.4,29.81,West,270,0.0,1.0,24,0.00,,,0.00,Wunderground v.1.13,2013-04-24 07:42:00,
2013-04-24 00:44:00,51.0,15.4,29.81,West,270,0.0,1.0,24,0.00,,,0.00,Wunderground v.1.13,2013-04-24 07:44:00,
2013-04-24 00:46:00,51.0,15.4,29.81,West,270,0.0,1.0,24,0.00,,,0.00,Wunderground v.1.13,2013-04-24 07:46:00,
2013-04-24 00:48:00,51.0,15.4,29.81,West,270,0.0,1.0,24,0.00,,,0.00,Wunderground v.1.13,2013-04-24 07:48:00,
2013-04-24 00:50:00,51.0,15.4,29.81,West,270,0.0,1.0,24,0.00,,,0.00,Wunderground v.1.13,2013-04-24 07:50:00,
2013-04-24 00:52:00,51.0,15.4,29.81,West,270,0.0,1.0,24,0.00,,,0.00,Wunderground v.1.13,2013-04-24 07:52:00,
2013-04-24 00:54:00,51.4,15.8,29.80,West,270,0.0,2.0,24,0.00,,,0.00,Wunderground v.1.13,2013-04-24 07:54:00,
2013-04-24 00:56:00,51.4,15.8,29.80,West,270,0.0,2.0,24,0.00,,,0.00,Wunderground v.1.13,2013-04-24 07:56:00,
2013-04-24 00:58:00,51.4,15.8,29.80,West,270,0.0,2.0,24,0.00,,,0.00,Wunderground v.1.13,2013-04-24 07:58:00,
2013-04-24 01:00:00,51.4,15.8,29.80,West,270,0.0,2.0,24,0.00,,,0.00,Wunderground v.1.13,2013-04-24 08:00:00,
2013-04-24 01:02:00,51.4,15.8,29.80,West,270,0.0,2.0,24,0.00,,,0.00,Wunderground v.1.13,2013-04-24 08:02:00,
2013-04-24 01:04:00,51.4,15.8,29.80,West,270,0.0,2.0,24,0.00,,,0.00,Wunderground v.1.13,2013-04-24 08:04:00,
2013-04-24 01:06:00,51.4,15.8,29.80,West,270,0.0,2.0,24,0.00,,,0.00,Wunderground v.1.13,2013-04-24 08:06:00,
2013-04-24 01:08:00,52.3,16.5,29.79,West,270,1.0,3.0,24,0.00,,,0.00,Wunderground v.1.13,2013-04-24 08:08:00,
2013-04-24 01:10:00,52.3,16.5,29.79,West,270,1.0,3.0,24,0.00,,,0.00,Wunderground v.1.13,2013-04-24 08:10:00,
2013-04-24 01:12:00,52.3,16.5,29.79,West,270,1.0,3.0,24,0.00,,,0.00,Wunderground v.1.13,2013-04-24 08:12:00,
2013-04-24 01:14:00,52.3,16.5,29.79,West,270,1.0,3.0,24,0.00,,,0.00,Wunderground v.1.13,2013-04-24 08:14:00,
2013-04-24 01:16:00,52.3,16.5,29.79,West,270,1.0,3.0,24,0.00,,,0.00,Wunderground v.1.13,2013-04-24 08:16:00,
2013-04-24 01:18:00,52.3,16.5,29.79,West,270,1.0,3.0,24,0.00,,,0.00,Wunderground v.1.13,2013-04-24 08:18:00,
2013-04-24 01:20:00,52.3,16.5,29.79,West,270,1.0,3.0,24,0.00,,,0.00,Wunderground v.1.13,2013-04-24 08:20:00,
2013-04-24 01:22:00,52.3,16.5,29.79,West,270,1.0,3.0,24,0.00,,,0.00,Wunderground v.1.13,2013-04-24 08:22:00,
2013-04-24 01:24:00,52.8,16.9,29.78,South,180,0.0,2.0,24,0.00,,,0.00,Wunderground v.1.13,2013-04-24 08:24:00,
2013-04-24 01:26:00,52.8,16.9,29.78,South,180,0.0,2.0,24,0.00,,,0.00,Wunderground v.1.13,2013-04-24 08:26:00,
2013-04-24 01:28:00,52.8,16.9,29.78,South,180,0.0,2.0,24,0.00,,,0.00,Wunderground v.1.13,2013-04-24 08:28:00,
2013-04-24 01:30:00,52.8,16.9,29.78,South,180,0.0,2.0,24,0.00,,,0.00,Wunderground v.1.13,2013-04-24 08:30:00,
2013-04-24 01:32:00,52.8,16.9,29.78,South,180,0.0,2.0,24,0.00,,,0.00,Wunderground v.1.13,2013-04-24 08:32:00,
2013-04-24 01:34:00,52.8,16.9,29.78,South,180,0.0,2.0,24,0.00,,,0.00,Wunderground v.1.13,2013-04-24 08:34:00,
2013-04-24 01:36:00,52.8,16.9,29.78,South,180,0.0,2.0,24,0.00,,,0.00,Wunderground v.1.13,2013-04-24 08:36:00,
2013-04-24 01:38:00,51.9,18.9,29.78,South,180,1.0,2.0,27,0.00,,,0.00,Wunderground v.1.13,2013-04-24 08:38:00,
2013-04-24 01:40:00,51.9,18.9,29.78,South,180,1.0,2.0,27,0.00,,,0.00,Wunderground v.1.13,2013-04-24 08:40:00,
2013-04-24 01:42:00,51.9,18.9,29.78,South,180,1.0,2.0,27,0.00,,,0.00,Wunderground v.1.13,2013-04-24 08:42:00,
2013-04-24 01:44:00,51.9,18.9,29.78,South,180,1.0,2.0,27,0.00,,,0.00,Wunderground v.1.13,2013-04-24 08:44:00,
2013-04-24 01:46:00,51.9,18.9,29.78,South,180,1.0,2.0,27,0.00,,,0.00,Wunderground v.1.13,2013-04-24 08:46:00,
2013-04-24 01:48:00,51.9,18.9,29.78,South,180,1.0,2.0,27,0.00,,,0.00,Wunderground v.1.13,2013-04-24 08:48:00,
2013-04-24 01:50:00,51.9,18.9,29.78,South,180,1.0,2.0,27,0.00,,,0.00,Wunderground v.1.13,2013-04-24 08:50:00,
2013-04-24 01:52:00,51.9,18.9,29.78,South,180,1.0,2.0,27,0.00,,,0.00,Wunderground v.1.13,2013-04-24 08:52:00,
2013-04-24 01:54:00,51.6,17.8,29.78,South,180,0.0,1.0,26,0.00,,,0.00,Wunderground v.1.13,2013-04-24 08:54:00,
2013-04-24 01:56:00,51.6,17.8,29.78,South,180,0.0,1.0,26,0.00,,,0.00,Wunderground v.1.13,2013-04-24 08:56:00,
2013-04-24 01:58:00,51.6,17.8,29.78,South,180,0.0,1.0,26,0.00,,,0.00,Wunderground v.1.13,2013-04-24 08:58:00,
2013-04-24 02:00:00,51.6,17.8,29.78,South,180,0.0,1.0,26,0.00,,,0.00,Wunderground v.1.13,2013-04-24 09:00:00,
2013-04-24 02:02:00,51.6,17.8,29.78,South,180,0.0,1.0,26,0.00,,,0.00,Wunderground v.1.13,2013-04-24 09:02:00,
2013-04-24 02:04:00,51.6,17.8,29.78,South,180,0.0,1.0,26,0.00,,,0.00,Wunderground v.1.13,2013-04-24 09:04:00,
2013-04-24 02:06:00,51.6,17.8,29.78,South,180,0.0,1.0,26,0.00,,,0.00,Wunderground v.1.13,2013-04-24 09:06:00,
2013-04-24 02:08:00,51.3,17.5,29.78,N/A,-737280,0.0,0.0,26,0.00,,,0.00,Wunderground v.1.13,2013-04-24 09:08:00,
2013-04-24 02:10:00,51.3,17.5,29.78,N/A,-737280,0.0,0.0,26,0.00,,,0.00,Wunderground v.1.13,2013-04-24 09:10:00,
2013-04-24 02:12:00,51.3,17.5,29.78,N/A,-737280,0.0,0.0,26,0.00,,,0.00,Wunderground v.1.13,2013-04-24 09:12:00,
2013-04-24 02:14:00,51.3,17.5,29.78,N/A,-737280,0.0,0.0,26,0.00,,,0.00,Wunderground v.1.13,2013-04-24 09:14:00,
2013-04-24 02:16:00,51.3,17.5,29.78,N/A,-737280,0.0,0.0,26,0.00,,,0.00,Wunderground v.1.13,2013-04-24 09:16:00,
2013-04-24 02:18:00,51.3,17.5,29.78,N/A,-737280,0.0,0.0,26,0.00,,,0.00,Wunderground v.1.13,2013-04-24 09:18:00,
2013-04-24 02:20:00,51.3,17.5,29.78,N/A,-737280,0.0,0.0,26,0.00,,,0.00,Wunderground v.1.13,2013-04-24 09:20:00,
2013-04-24 02:22:00,51.3,17.5,29.78,N/A,-737280,0.0,0.0,26,0.00,,,0.00,Wunderground v.1.13,2013-04-24 09:22:00,
2013-04-24 02:24:00,51.1,17.4,29.78,South,180,1.0,2.0,26,0.00,,,0.00,Wunderground v.1.13,2013-04-24 09:24:00,
2013-04-24 02:26:00,51.1,17.4,29.78,South,180,1.0,2.0,26,0.00,,,0.00,Wunderground v.1.13,2013-04-24 09:26:00,
2013-04-24 02:28:00,51.1,17.4,29.78,South,180,1.0,2.0,26,0.00,,,0.00,Wunderground v.1.13,2013-04-24 09:28:00,
2013-04-24 02:30:00,51.1,17.4,29.78,South,180,1.0,2.0,26,0.00,,,0.00,Wunderground v.1.13,2013-04-24 09:30:00,
2013-04-24 02:32:00,51.1,17.4,29.78,South,180,1.0,2.0,26,0.00,,,0.00,Wunderground v.1.13,2013-04-24 09:32:00,
2013-04-24 02:34:00,51.1,17.4,29.78,South,180,1.0,2.0,26,0.00,,,0.00,Wunderground v.1.13,2013-04-24 09:34:00,
2013-04-24 02:36:00,51.1,17.4,29.78,South,180,1.0,2.0,26,0.00,,,0.00,Wunderground v.1.13,2013-04-24 09:36:00,
2013-04-24 02:38:00,50.7,17.0,29.78,West,270,1.0,2.0,26,0.00,,,0.00,Wunderground v.1.13,2013-04-24 09:38:00,
2013-04-24 02:40:00,50.7,17.0,29.78,West,270,1.0,2.0,26,0.00,,,0.00,Wunderground v.1.13,2013-04-24 09:40:00,
2013-04-24 02:42:00,50.7,17.0,29.78,West,270,1.0,2.0,26,0.00,,,0.00,Wunderground v.1.13,2013-04-24 09:42:00,
2013-04-24 02:44:00,50.7,17.0,29.78,West,270,1.0,2.0,26,0.00,,,0.00,Wunderground v.1.13,2013-04-24 09:44:00,
2013-04-24 02:46:00,50.7,17.0,29.78,West,270,1.0,2.0,26,0.00,,,0.00,Wunderground v.1.13,2013-04-24 09:46:00,
2013-04-24 02:48:00,50.7,17.0,29.78,West,270,1.0,2.0,26,0.00,,,0.00,Wunderground v.1.13,2013-04-24 09:48:00,
2013-04-24 02:50:00,50.7,17.0,29.78,West,270,1.0,2.0,26,0.00,,,0.00,Wunderground v.1.13,2013-04-24 09:50:00,
2013-04-24 02:52:00,50.7,17.0,29.78,West,270,1.0,2.0,26,0.00,,,0.00,Wunderground v.1.13,2013-04-24 09:52:00,
2013-04-24 02:54:00,50.8,17.1,29.77,West,270,1.0,5.0,26,0.00,,,0.00,Wunderground v.1.13,2013-04-24 09:54:00,
2013-04-24 02:56:00,50.8,17.1,29.77,West,270,1.0,5.0,26,0.00,,,0.00,Wunderground v.1.13,2013-04-24 09:56:00,
2013-04-24 02:58:00,50.8,17.1,29.77,West,270,1.0,5.0,26,0.00,,,0.00,Wunderground v.1.13,2013-04-24 09:58:00,
2013-04-24 03:00:00,50.8,17.1,29.77,West,270,1.0,5.0,26,0.00,,,0.00,Wunderground v.1.13,2013-04-24 10:00:00,
2013-04-24 03:02:00,50.8,17.1,29.77,West,270,1.0,5.0,26,0.00,,,0.00,Wunderground v.1.13,2013-04-24 10:02:00,
2013-04-24 03:04:00,50.8,17.1,29.77,West,270,1.0,5.0,26,0.00,,,0.00,Wunderground v.1.13,2013-04-24 10:04:00,
2013-04-24 03:06:00,50.8,17.1,29.77,West,270,1.0,5.0,26,0.00,,,0.00,Wunderground v.1.13,2013-04-24 10:06:00,
2013-04-24 03:08:00,50.7,17.0,29.77,West,270,1.0,3.0,26,0.00,,,0.00,Wunderground v.1.13,2013-04-24 10:08:00,
2013-04-24 03:10:00,50.7,17.0,29.77,West,270,1.0,3.0,26,0.00,,,0.00,Wunderground v.1.13,2013-04-24 10:10:00,
2013-04-24 03:12:00,50.7,17.0,29.77,West,270,1.0,3.0,26,0.00,,,0.00,Wunderground v.1.13,2013-04-24 10:12:00,
2013-04-24 03:14:00,50.7,17.0,29.77,West,270,1.0,3.0,26,0.00,,,0.00,Wunderground v.1.13,2013-04-24 10:14:00,
2013-04-24 03:16:00,50.7,17.0,29.77,West,270,1.0,3.0,26,0.00,,,0.00,Wunderground v.1.13,2013-04-24 10:16:00,
2013-04-24 03:18:00,50.7,17.0,29.77,West,270,1.0,3.0,26,0.00,,,0.00,Wunderground v.1.13,2013-04-24 10:18:00,
2013-04-24 03:20:00,50.7,17.0,29.77,West,270,1.0,3.0,26,0.00,,,0.00,Wunderground v.1.13,2013-04-24 10:20:00,
2013-04-24 03:22:00,50.7,17.0,29.77,West,270,1.0,3.0,26,0.00,,,0.00,Wunderground v.1.13,2013-04-24 10:22:00,
2013-04-24 03:24:00,50.5,18.6,29.77,N/A,-737280,0.0,0.0,28,0.00,,,0.00,Wunderground v.1.13,2013-04-24 10:24:00,
2013-04-24 03:26:00,50.5,18.6,29.77,N/A,-737280,0.0,0.0,28,0.00,,,0.00,Wunderground v.1.13,2013-04-24 10:26:00,
2013-04-24 03:28:00,50.5,18.6,29.77,N/A,-737280,0.0,0.0,28,0.00,,,0.00,Wunderground v.1.13,2013-04-24 10:28:00,
2013-04-24 03:30:00,50.5,18.6,29.77,N/A,-737280,0.0,0.0,28,0.00,,,0.00,Wunderground v.1.13,2013-04-24 10:30:00,
2013-04-24 03:32:00,50.5,18.6,29.77,N/A,-737280,0.0,0.0,28,0.00,,,0.00,Wunderground v.1.13,2013-04-24 10:32:00,
2013-04-24 03:34:00,50.5,18.6,29.77,N/A,-737280,0.0,0.0,28,0.00,,,0.00,Wunderground v.1.13,2013-04-24 10:34:00,
2013-04-24 03:36:00,50.5,18.6,29.77,N/A,-737280,0.0,0.0,28,0.00,,,0.00,Wunderground v.1.13,2013-04-24 10:36:00,
2013-04-24 03:38:00,50.1,18.2,29.78,N/A,-737280,0.0,0.0,28,0.00,,,0.00,Wunderground v.1.13,2013-04-24 10:38:00,
2013-04-24 03:40:00,50.1,18.2,29.78,N/A,-737280,0.0,0.0,28,0.00,,,0.00,Wunderground v.1.13,2013-04-24 10:40:00,
2013-04-24 03:42:00,50.1,18.2,29.78,N/A,-737280,0.0,0.0,28,0.00,,,0.00,Wunderground v.1.13,2013-04-24 10:42:00,
2013-04-24 03:44:00,50.1,18.2,29.78,N/A,-737280,0.0,0.0,28,0.00,,,0.00,Wunderground v.1.13,2013-04-24 10:44:00,
2013-04-24 03:46:00,50.1,18.2,29.78,N/A,-737280,0.0,0.0,28,0.00,,,0.00,Wunderground v.1.13,2013-04-24 10:46:00,
2013-04-24 03:48:00,50.1,18.2,29.78,N/A,-737280,0.0,0.0,28,0.00,,,0.00,Wunderground v.1.13,2013-04-24 10:48:00,
2013-04-24 03:50:00,50.1,18.2,29.78,N/A,-737280,0.0,0.0,28,0.00,,,0.00,Wunderground v.1.13,2013-04-24 10:50:00,
2013-04-24 03:52:00,50.1,18.2,29.78,N/A,-737280,0.0,0.0,28,0.00,,,0.00,Wunderground v.1.13,2013-04-24 10:52:00,
2013-04-24 03:54:00,-999.9,-99.9,29.78,N/A,-737280,0.0,0.0,28,0.00,,,0.00,Wunderground v.1.13,2013-04-24 10:54:00,
2013-04-24 03:56:00,-999.9,-99.9,29.78,N/A,-737280,0.0,0.0,28,0.00,,,0.00,Wunderground v.1.13,2013-04-24 10:56:00,
2013-04-24 03:58:00,-999.9,-99.9,29.78,N/A,-737280,0.0,0.0,28,0.00,,,0.00,Wunderground v.1.13,2013-04-24 10:58:00,
2013-04-24 04:00:00,-999.9,-99.9,29.78,N/A,-737280,0.0,0.0,28,0.00,,,0.00,Wunderground v.1.13,2013-04-24 11:00:00,
2013-04-24 04:02:00,-999.9,-99.9,29.78,N/A,-737280,0.0,0.0,28,0.00,,,0.00,Wunderground v.1.13,2013-04-24 11:02:00,
2013-04-24 04:04:00,-999.9,-99.9,29.78,N/A,-737280,0.0,0.0,28,0.00,,,0.00,Wunderground v.1.13,2013-04-24 11:04:00,
2013-04-24 04:06:00,-999.9,-99.9,29.78,N/A,-737280,0.0,0.0,28,0.00,,,0.00,Wunderground v.1.13,2013-04-24 11:06:00,
2013-04-24 04:08:00,-999.9,-99.9,29.78,N/A,-737280,0.0,0.0,28,0.00,,,0.00,Wunderground v.1.13,2013-04-24 11:08:00,
2013-04-24 04:10:00,-999.9,-99.9,29.78,N/A,-737280,0.0,0.0,28,0.00,,,0.00,Wunderground v.1.13,2013-04-24 11:10:00,
2013-04-24 04:12:00,-999.9,-99.9,29.78,N/A,-737280,0.0,0.0,28,0.00,,,0.00,Wunderground v.1.13,2013-04-24 11:12:00,
2013-04-24 04:14:00,-999.9,-99.9,29.78,N/A,-737280,0.0,0.0,28,0.00,,,0.00,Wunderground v.1.13,2013-04-24 11:14:00,
2013-04-24 04:16:00,-999.9,-99.9,29.78,N/A,-737280,0.0,0.0,28,0.00,,,0.00,Wunderground v.1.13,2013-04-24 11:16:00,
2013-04-24 04:18:00,-999.9,-99.9,29.78,N/A,-737280,0.0,0.0,28,0.00,,,0.00,Wunderground v.1.13,2013-04-24 11:18:00,
2013-04-24 04:20:00,-999.9,-99.9,29.78,N/A,-737280,0.0,0.0,28,0.00,,,0.00,Wunderground v.1.13,2013-04-24 11:20:00,
2013-04-24 04:22:00,-999.9,-99.9,29.78,N/A,-737280,0.0,0.0,28,0.00,,,0.00,Wunderground v.1.13,2013-04-24 11:22:00,
2013-04-24 04:24:00,-999.9,-99.9,29.78,N/A,-737280,0.0,0.0,36,0.00,,,0.00,Wunderground v.1.13,2013-04-24 11:24:00,
2013-04-24 04:26:00,-999.9,-99.9,29.78,N/A,-737280,0.0,0.0,36,0.00,,,0.00,Wunderground v.1.13,2013-04-24 11:26:00,
2013-04-24 04:28:00,-999.9,-99.9,29.78,N/A,-737280,0.0,0.0,36,0.00,,,0.00,Wunderground v.1.13,2013-04-24 11:28:00,
2013-04-24 04:30:00,-999.9,-99.9,29.78,N/A,-737280,0.0,0.0,36,0.00,,,0.00,Wunderground v.1.13,2013-04-24 11:30:00,
2013-04-24 04:32:00,-999.9,-99.9,29.78,N/A,-737280,0.0,0.0,36,0.00,,,0.00,Wunderground v.1.13,2013-04-24 11:32:00,
2013-04-24 04:34:00,-999.9,-99.9,29.78,N/A,-737280,0.0,0.0,36,0.00,,,0.00,Wunderground v.1.13,2013-04-24 11:34:00,
2013-04-24 04:36:00,-999.9,-99.9,29.78,N/A,-737280,0.0,0.0,36,0.00,,,0.00,Wunderground v.1.13,2013-04-24 11:36:00,
2013-04-24 04:38:00,47.1,21.5,29.80,N/A,-737280,0.0,0.0,36,0.00,,,0.00,Wunderground v.1.13,2013-04-24 11:38:00,
2013-04-24 04:40:00,47.1,21.5,29.80,N/A,-737280,0.0,0.0,36,0.00,,,0.00,Wunderground v.1.13,2013-04-24 11:40:00,
2013-04-24 04:42:00,47.1,21.5,29.80,N/A,-737280,0.0,0.0,36,0.00,,,0.00,Wunderground v.1.13,2013-04-24 11:42:00,
2013-04-24 04:44:00,47.1,21.5,29.80,N/A,-737280,0.0,0.0,36,0.00,,,0.00,Wunderground v.1.13,2013-04-24 11:44:00,
2013-04-24 04:46:00,47.1,21.5,29.80,N/A,-737280,0.0,0.0,36,0.00,,,0.00,Wunderground v.1.13,2013-04-24 11:46:00,
2013-04-24 04:48:00,47.1,21.5,29.80,N/A,-737280,0.0,0.0,36,0.00,,,0.00,Wunderground v.1.13,2013-04-24 11:48:00,
2013-04-24 04:50:00,47.1,21.5,29.80,N/A,-737280,0.0,0.0,36,0.00,,,0.00,Wunderground v.1.13,2013-04-24 11:50:00,
2013-04-24 04:52:00,47.1,21.5,29.80,N/A,-737280,0.0,0.0,36,0.00,,,0.00,Wunderground v.1.13,2013-04-24 11:52:00,
2013-04-24 04:54:00,46.5,20.9,29.80,N/A,-737280,0.0,0.0,36,0.00,,,0.00,Wunderground v.1.13,2013-04-24 11:54:00,
2013-04-24 04:56:00,46.5,20.9,29.80,N/A,-737280,0.0,0.0,36,0.00,,,0.00,Wunderground v.1.13,2013-04-24 11:56:00,
2013-04-24 04:58:00,46.5,20.9,29.80,N/A,-737280,0.0,0.0,36,0.00,,,0.00,Wunderground v.1.13,2013-04-24 11:58:00,
2013-04-24 05:00:00,46.5,20.9,29.80,N/A,-737280,0.0,0.0,36,0.00,,,0.00,Wunderground v.1.13,2013-04-24 12:00:00,
2013-04-24 05:02:00,46.5,20.9,29.80,N/A,-737280,0.0,0.0,36,0.00,,,0.00,Wunderground v.1.13,2013-04-24 12:02:00,
2013-04-24 05:06:00,46.5,20.9,29.80,N/A,-737280,0.0,0.0,36,0.00,,,0.00,Wunderground v.1.13,2013-04-24 12:06:00,
2013-04-24 05:08:00,-999.9,-99.9,29.94,N/A,-737280,0.0,0.0,32,0.00,,,0.00,Wunderground v.1.13,2013-04-24 12:08:00,
2013-04-24 05:10:00,-999.9,-99.9,29.94,N/A,-737280,0.0,0.0,32,0.00,,,0.00,Wunderground v.1.13,2013-04-24 12:10:00,
2013-04-24 05:12:00,-999.9,-99.9,29.94,N/A,-737280,0.0,0.0,32,0.00,,,0.00,Wunderground v.1.13,2013-04-24 12:12:00,
2013-04-24 05:14:00,-999.9,-99.9,29.94,N/A,-737280,0.0,0.0,32,0.00,,,0.00,Wunderground v.1.13,2013-04-24 12:14:00,
2013-04-24 05:16:00,-999.9,-99.9,29.94,N/A,-737280,0.0,0.0,32,0.00,,,0.00,Wunderground v.1.13,2013-04-24 12:16:00,
2013-04-24 05:18:00,-999.9,-99.9,29.94,N/A,-737280,0.0,0.0,32,0.00,,,0.00,Wunderground v.1.13,2013-04-24 12:18:00,
2013-04-24 05:20:00,-999.9,-99.9,29.94,N/A,-737280,0.0,0.0,32,0.00,,,0.00,Wunderground v.1.13,2013-04-24 12:20:00,
2013-04-24 05:22:00,-999.9,-99.9,29.94,N/A,-737280,0.0,0.0,32,0.00,,,0.00,Wunderground v.1.13,2013-04-24 12:22:00,
2013-04-24 05:24:00,46.2,20.0,29.95,N/A,-737280,0.0,0.0,35,0.00,,,0.00,Wunderground v.1.13,2013-04-24 12:24:00,
2013-04-24 05:26:00,46.2,20.0,29.95,N/A,-737280,0.0,0.0,35,0.00,,,0.00,Wunderground v.1.13,2013-04-24 12:26:00,
2013-04-24 05:28:00,46.2,20.0,29.95,N/A,-737280,0.0,0.0,35,0.00,,,0.00,Wunderground v.1.13,2013-04-24 12:28:00,
2013-04-24 05:30:00,46.2,20.0,29.95,N/A,-737280,0.0,0.0,35,0.00,,,0.00,Wunderground v.1.13,2013-04-24 12:30:00,
2013-04-24 05:34:00,46.2,20.0,29.95,N/A,-737280,0.0,0.0,35,0.00,,,0.00,Wunderground v.1.13,2013-04-24 12:34:00,
2013-04-24 05:36:00,46.2,20.0,29.95,N/A,-737280,0.0,0.0,35,0.00,,,0.00,Wunderground v.1.13,2013-04-24 12:36:00,
2013-04-24 05:38:00,46.7,17.6,29.95,N/A,-737280,0.0,0.0,31,0.00,,,0.00,Wunderground v.1.13,2013-04-24 12:38:00,
2013-04-24 05:40:00,46.7,17.6,29.95,N/A,-737280,0.0,0.0,31,0.00,,,0.00,Wunderground v.1.13,2013-04-24 12:40:00,
2013-04-24 05:42:00,46.7,17.6,29.95,N/A,-737280,0.0,0.0,31,0.00,,,0.00,Wunderground v.1.13,2013-04-24 12:42:00,
2013-04-24 05:44:00,46.7,17.6,29.95,N/A,-737280,0.0,0.0,31,0.00,,,0.00,Wunderground v.1.13,2013-04-24 12:44:00,
2013-04-24 05:46:00,46.7,17.6,29.95,N/A,-737280,0.0,0.0,31,0.00,,,0.00,Wunderground v.1.13,2013-04-24 12:46:00,
2013-04-24 05:48:00,46.7,17.6,29.95,N/A,-737280,0.0,0.0,31,0.00,,,0.00,Wunderground v.1.13,2013-04-24 12:48:00,
2013-04-24 05:50:00,46.7,17.6,29.95,N/A,-737280,0.0,0.0,31,0.00,,,0.00,Wunderground v.1.13,2013-04-24 12:50:00,
2013-04-24 05:52:00,46.7,17.6,29.95,N/A,-737280,0.0,0.0,31,0.00,,,0.00,Wunderground v.1.13,2013-04-24 12:52:00,
2013-04-24 05:54:00,47.4,18.2,29.96,N/A,-737280,0.0,0.0,31,0.00,,,0.00,Wunderground v.1.13,2013-04-24 12:54:00,
2013-04-24 05:56:00,47.4,18.2,29.96,N/A,-737280,0.0,0.0,31,0.00,,,0.00,Wunderground v.1.13,2013-04-24 12:56:00,
2013-04-24 05:58:00,47.4,18.2,29.96,N/A,-737280,0.0,0.0,31,0.00,,,0.00,Wunderground v.1.13,2013-04-24 12:58:00,
2013-04-24 06:00:00,47.4,18.2,29.96,N/A,-737280,0.0,0.0,31,0.00,,,0.00,Wunderground v.1.13,2013-04-24 13:00:00,
2013-04-24 06:02:00,47.4,18.2,29.96,N/A,-737280,0.0,0.0,31,0.00,,,0.00,Wunderground v.1.13,2013-04-24 13:02:00,
2013-04-24 06:04:00,47.4,18.2,29.96,N/A,-737280,0.0,0.0,31,0.00,,,0.00,Wunderground v.1.13,2013-04-24 13:04:00,
2013-04-24 06:06:00,47.4,18.2,29.96,N/A,-737280,0.0,0.0,31,0.00,,,0.00,Wunderground v.1.13,2013-04-24 13:06:00,
2013-04-24 06:08:00,-999.9,-99.9,29.96,N/A,-737280,0.0,0.0,31,0.00,,,0.00,Wunderground v.1.13,2013-04-24 13:08:00,
2013-04-24 06:10:00,-999.9,-99.9,29.96,N/A,-737280,0.0,0.0,31,0.00,,,0.00,Wunderground v.1.13,2013-04-24 13:10:00,
2013-04-24 06:12:00,-999.9,-99.9,29.96,N/A,-737280,0.0,0.0,31,0.00,,,0.00,Wunderground v.1.13,2013-04-24 13:12:00,
2013-04-24 06:14:00,-999.9,-99.9,29.96,N/A,-737280,0.0,0.0,31,0.00,,,0.00,Wunderground v.1.13,2013-04-24 13:14:00,
2013-04-24 06:16:00,-999.9,-99.9,29.96,N/A,-737280,0.0,0.0,31,0.00,,,0.00,Wunderground v.1.13,2013-04-24 13:16:00,
2013-04-24 06:18:00,-999.9,-99.9,29.96,N/A,-737280,0.0,0.0,31,0.00,,,0.00,Wunderground v.1.13,2013-04-24 13:18:00,
2013-04-24 06:20:00,-999.9,-99.9,29.96,N/A,-737280,0.0,0.0,31,0.00,,,0.00,Wunderground v.1.13,2013-04-24 13:20:00,
2013-04-24 06:22:00,-999.9,-99.9,29.96,N/A,-737280,0.0,0.0,31,0.00,,,0.00,Wunderground v.1.13,2013-04-24 13:22:00,
2013-04-24 06:24:00,-999.9,-99.9,29.96,WSW,248,0.0,1.0,31,0.00,,,0.00,Wunderground v.1.13,2013-04-24 13:24:00,
2013-04-24 06:26:00,-999.9,-99.9,29.96,WSW,248,0.0,1.0,31,0.00,,,0.00,Wunderground v.1.13,2013-04-24 13:26:00,
2013-04-24 06:28:00,-999.9,-99.9,29.96,WSW,248,0.0,1.0,31,0.00,,,0.00,Wunderground v.1.13,2013-04-24 13:28:00,
2013-04-24 06:30:00,-999.9,-99.9,29.96,WSW,248,0.0,1.0,31,0.00,,,0.00,Wunderground v.1.13,2013-04-24 13:30:00,
2013-04-24 06:32:00,-999.9,-99.9,29.96,WSW,248,0.0,1.0,31,0.00,,,0.00,Wunderground v.1.13,2013-04-24 13:32:00,
2013-04-24 06:34:00,-999.9,-99.9,29.96,WSW,248,0.0,1.0,31,0.00,,,0.00,Wunderground v.1.13,2013-04-24 13:34:00,
2013-04-24 06:36:00,-999.9,-99.9,29.96,WSW,248,0.0,1.0,31,0.00,,,0.00,Wunderground v.1.13,2013-04-24 13:36:00,
2013-04-24 06:38:00,-999.9,-99.9,29.97,WSW,248,1.0,2.0,31,0.00,,,0.00,Wunderground v.1.13,2013-04-24 13:38:00,
2013-04-24 06:40:00,-999.9,-99.9,29.97,WSW,248,1.0,2.0,31,0.00,,,0.00,Wunderground v.1.13,2013-04-24 13:40:00,
2013-04-24 06:42:00,-999.9,-99.9,29.97,WSW,248,1.0,2.0,31,0.00,,,0.00,Wunderground v.1.13,2013-04-24 13:42:00,
2013-04-24 06:44:00,-999.9,-99.9,29.97,WSW,248,1.0,2.0,31,0.00,,,0.00,Wunderground v.1.13,2013-04-24 13:44:00,
2013-04-24 06:46:00,-999.9,-99.9,29.97,WSW,248,1.0,2.0,31,0.00,,,0.00,Wunderground v.1.13,2013-04-24 13:46:00,
2013-04-24 06:48:00,-999.9,-99.9,29.97,WSW,248,1.0,2.0,31,0.00,,,0.00,Wunderground v.1.13,2013-04-24 13:48:00,
2013-04-24 06:50:00,-999.9,-99.9,29.97,WSW,248,1.0,2.0,31,0.00,,,0.00,Wunderground v.1.13,2013-04-24 13:50:00,
2013-04-24 06:52:00,-999.9,-99.9,29.97,WSW,248,1.0,2.0,31,0.00,,,0.00,Wunderground v.1.13,2013-04-24 13:52:00,
2013-04-24 06:54:00,57.3,31.2,29.94,ENE,68,1.0,3.0,37,0.00,,,0.00,Wunderground v.1.13,2013-04-24 13:54:00,
2013-04-24 06:56:00,57.3,31.2,29.94,ENE,68,1.0,3.0,37,0.00,,,0.00,Wunderground v.1.13,2013-04-24 13:56:00,
2013-04-24 06:58:00,57.3,31.2,29.94,ENE,68,1.0,3.0,37,0.00,,,0.00,Wunderground v.1.13,2013-04-24 13:58:00,
2013-04-24 07:00:00,57.3,31.2,29.94,ENE,68,1.0,3.0,37,0.00,,,0.00,Wunderground v.1.13,2013-04-24 14:00:00,
2013-04-24 07:02:00,57.3,31.2,29.94,ENE,68,1.0,3.0,37,0.00,,,0.00,Wunderground v.1.13,2013-04-24 14:02:00,
2013-04-24 07:04:00,57.3,31.2,29.94,ENE,68,1.0,3.0,37,0.00,,,0.00,Wunderground v.1.13,2013-04-24 14:04:00,
2013-04-24 07:06:00,57.3,31.2,29.94,ENE,68,1.0,3.0,37,0.00,,,0.00,Wunderground v.1.13,2013-04-24 14:06:00,
2013-04-24 07:08:00,-999.9,-99.9,29.77,ENE,68,0.0,1.0,37,0.00,,,0.00,Wunderground v.1.13,2013-04-24 14:08:00,
2013-04-24 07:10:00,-999.9,-99.9,29.77,ENE,68,0.0,1.0,37,0.00,,,0.00,Wunderground v.1.13,2013-04-24 14:10:00,
2013-04-24 07:12:00,-999.9,-99.9,29.77,ENE,68,0.0,1.0,37,0.00,,,0.00,Wunderground v.1.13,2013-04-24 14:12:00,
2013-04-24 07:14:00,-999.9,-99.9,29.77,ENE,68,0.0,1.0,37,0.00,,,0.00,Wunderground v.1.13,2013-04-24 14:14:00,
2013-04-24 07:16:00,-999.9,-99.9,29.77,ENE,68,0.0,1.0,37,0.00,,,0.00,Wunderground v.1.13,2013-04-24 14:16:00,
2013-04-24 07:18:00,-999.9,-99.9,29.77,ENE,68,0.0,1.0,37,0.00,,,0.00,Wunderground v.1.13,2013-04-24 14:18:00,
2013-04-24 07:20:00,-999.9,-99.9,29.77,ENE,68,0.0,1.0,37,0.00,,,0.00,Wunderground v.1.13,2013-04-24 14:20:00,
2013-04-24 07:22:00,-999.9,-99.9,29.77,ENE,68,0.0,1.0,37,0.00,,,0.00,Wunderground v.1.13,2013-04-24 14:22:00,
2013-04-24 07:24:00,-999.9,-99.9,29.77,East,90,1.0,1.0,37,0.00,,,0.00,Wunderground v.1.13,2013-04-24 14:24:00,
2013-04-24 07:26:00,-999.9,-99.9,29.77,East,90,1.0,1.0,37,0.00,,,0.00,Wunderground v.1.13,2013-04-24 14:26:00,
2013-04-24 07:28:00,-999.9,-99.9,29.77,East,90,1.0,1.0,37,0.00,,,0.00,Wunderground v.1.13,2013-04-24 14:28:00,
2013-04-24 07:30:00,-999.9,-99.9,29.77,East,90,1.0,1.0,37,0.00,,,0.00,Wunderground v.1.13,2013-04-24 14:30:00,
2013-04-24 07:32:00,-999.9,-99.9,29.77,East,90,1.0,1.0,37,0.00,,,0.00,Wunderground v.1.13,2013-04-24 14:32:00,
2013-04-24 07:34:00,-999.9,-99.9,29.77,East,90,1.0,1.0,37,0.00,,,0.00,Wunderground v.1.13,2013-04-24 14:34:00,
2013-04-24 07:36:00,-999.9,-99.9,29.77,East,90,1.0,1.0,37,0.00,,,0.00,Wunderground v.1.13,2013-04-24 14:36:00,
2013-04-24 07:38:00,62.9,36.2,29.76,East,90,1.0,2.0,37,0.00,,,0.00,Wunderground v.1.13,2013-04-24 14:38:00,
2013-04-24 07:40:00,62.9,36.2,29.76,East,90,1.0,2.0,37,0.00,,,0.00,Wunderground v.1.13,2013-04-24 14:40:00,
2013-04-24 07:42:00,62.9,36.2,29.76,East,90,1.0,2.0,37,0.00,,,0.00,Wunderground v.1.13,2013-04-24 14:42:00,
2013-04-24 07:44:00,62.9,36.2,29.76,East,90,1.0,2.0,37,0.00,,,0.00,Wunderground v.1.13,2013-04-24 14:44:00,
2013-04-24 07:46:00,62.9,36.2,29.76,East,90,1.0,2.0,37,0.00,,,0.00,Wunderground v.1.13,2013-04-24 14:46:00,
2013-04-24 07:48:00,62.9,36.2,29.76,East,90,1.0,2.0,37,0.00,,,0.00,Wunderground v.1.13,2013-04-24 14:48:00,
2013-04-24 07:50:00,62.9,36.2,29.76,East,90,1.0,2.0,37,0.00,,,0.00,Wunderground v.1.13,2013-04-24 14:50:00,
2013-04-24 07:52:00,62.9,36.2,29.76,East,90,1.0,2.0,37,0.00,,,0.00,Wunderground v.1.13,2013-04-24 14:52:00,
2013-04-24 07:54:00,-999.9,-99.9,29.76,ENE,68,1.0,2.0,37,0.00,,,0.00,Wunderground v.1.13,2013-04-24 14:54:00,
2013-04-24 07:56:00,-999.9,-99.9,29.76,ENE,68,1.0,2.0,37,0.00,,,0.00,Wunderground v.1.13,2013-04-24 14:56:00,
2013-04-24 07:58:00,-999.9,-99.9,29.76,ENE,68,1.0,2.0,37,0.00,,,0.00,Wunderground v.1.13,2013-04-24 14:58:00,
2013-04-24 08:00:00,-999.9,-99.9,29.76,ENE,68,1.0,2.0,37,0.00,,,0.00,Wunderground v.1.13,2013-04-24 15:00:00,
2013-04-24 08:02:00,-999.9,-99.9,29.76,ENE,68,1.0,2.0,37,0.00,,,0.00,Wunderground v.1.13,2013-04-24 15:02:00,
2013-04-24 08:04:00,-999.9,-99.9,29.76,ENE,68,1.0,2.0,37,0.00,,,0.00,Wunderground v.1.13,2013-04-24 15:04:00,
2013-04-24 08:06:00,-999.9,-99.9,29.76,ENE,68,1.0,2.0,37,0.00,,,0.00,Wunderground v.1.13,2013-04-24 15:06:00,
2013-04-24 08:08:00,-999.9,-99.9,29.78,SE,135,0.0,2.0,37,0.00,,,0.00,Wunderground v.1.13,2013-04-24 15:08:00,
2013-04-24 08:10:00,-999.9,-99.9,29.78,SE,135,0.0,2.0,37,0.00,,,0.00,Wunderground v.1.13,2013-04-24 15:10:00,
2013-04-24 08:12:00,-999.9,-99.9,29.78,SE,135,0.0,2.0,37,0.00,,,0.00,Wunderground v.1.13,2013-04-24 15:12:00,
2013-04-24 08:14:00,-999.9,-99.9,29.78,SE,135,0.0,2.0,37,0.00,,,0.00,Wunderground v.1.13,2013-04-24 15:14:00,
2013-04-24 08:16:00,-999.9,-99.9,29.78,SE,135,0.0,2.0,37,0.00,,,0.00,Wunderground v.1.13,2013-04-24 15:16:00,
2013-04-24 08:18:00,-999.9,-99.9,29.78,SE,135,0.0,2.0,37,0.00,,,0.00,Wunderground v.1.13,2013-04-24 15:18:00,
2013-04-24 08:20:00,-999.9,-99.9,29.78,SE,135,0.0,2.0,37,0.00,,,0.00,Wunderground v.1.13,2013-04-24 15:20:00,
2013-04-24 08:22:00,-999.9,-99.9,29.78,SE,135,0.0,2.0,37,0.00,,,0.00,Wunderground v.1.13,2013-04-24 15:22:00,
2013-04-24 08:24:00,-999.9,-99.9,29.78,NE,45,1.0,2.0,37,0.00,,,0.00,Wunderground v.1.13,2013-04-24 15:24:00,
2013-04-24 08:26:00,-999.9,-99.9,29.78,NE,45,1.0,2.0,37,0.00,,,0.00,Wunderground v.1.13,2013-04-24 15:26:00,
2013-04-24 08:28:00,-999.9,-99.9,29.78,NE,45,1.0,2.0,37,0.00,,,0.00,Wunderground v.1.13,2013-04-24 15:28:00,
2013-04-24 08:30:00,-999.9,-99.9,29.78,NE,45,1.0,2.0,37,0.00,,,0.00,Wunderground v.1.13,2013-04-24 15:30:00,
2013-04-24 08:32:00,-999.9,-99.9,29.78,NE,45,1.0,2.0,37,0.00,,,0.00,Wunderground v.1.13,2013-04-24 15:32:00,
2013-04-24 08:34:00,-999.9,-99.9,29.78,NE,45,1.0,2.0,37,0.00,,,0.00,Wunderground v.1.13,2013-04-24 15:34:00,
2013-04-24 08:36:00,-999.9,-99.9,29.78,NE,45,1.0,2.0,37,0.00,,,0.00,Wunderground v.1.13,2013-04-24 15:36:00,
2013-04-24 08:38:00,-999.9,-99.9,29.78,NNE,23,2.0,2.0,37,0.00,,,0.00,Wunderground v.1.13,2013-04-24 15:38:00,
2013-04-24 08:40:00,-999.9,-99.9,29.78,NNE,23,2.0,2.0,37,0.00,,,0.00,Wunderground v.1.13,2013-04-24 15:40:00,
2013-04-24 08:42:00,-999.9,-99.9,29.78,NNE,23,2.0,2.0,37,0.00,,,0.00,Wunderground v.1.13,2013-04-24 15:42:00,
2013-04-24 08:44:00,-999.9,-99.9,29.78,NNE,23,2.0,2.0,37,0.00,,,0.00,Wunderground v.1.13,2013-04-24 15:44:00,
2013-04-24 08:46:00,-999.9,-99.9,29.78,NNE,23,2.0,2.0,37,0.00,,,0.00,Wunderground v.1.13,2013-04-24 15:46:00,
2013-04-24 08:48:00,-999.9,-99.9,29.78,NNE,23,2.0,2.0,37,0.00,,,0.00,Wunderground v.1.13,2013-04-24 15:48:00,
2013-04-24 08:50:00,-999.9,-99.9,29.78,NNE,23,2.0,2.0,37,0.00,,,0.00,Wunderground v.1.13,2013-04-24 15:50:00,
2013-04-24 08:52:00,-999.9,-99.9,29.78,NNE,23,2.0,2.0,37,0.00,,,0.00,Wunderground v.1.13,2013-04-24 15:52:00,
2013-04-24 08:54:00,-999.9,-99.9,29.78,NNE,23,4.0,8.0,37,0.00,,,0.00,Wunderground v.1.13,2013-04-24 15:54:00,
2013-04-24 08:56:00,-999.9,-99.9,29.78,NNE,23,4.0,8.0,37,0.00,,,0.00,Wunderground v.1.13,2013-04-24 15:56:00,
2013-04-24 08:58:00,-999.9,-99.9,29.78,NNE,23,4.0,8.0,37,0.00,,,0.00,Wunderground v.1.13,2013-04-24 15:58:00,
2013-04-24 09:00:00,-999.9,-99.9,29.78,NNE,23,4.0,8.0,37,0.00,,,0.00,Wunderground v.1.13,2013-04-24 16:00:00,
2013-04-24 09:02:00,-999.9,-99.9,29.78,NNE,23,4.0,8.0,37,0.00,,,0.00,Wunderground v.1.13,2013-04-24 16:02:00,
2013-04-24 09:04:00,-999.9,-99.9,29.78,NNE,23,4.0,8.0,37,0.00,,,0.00,Wunderground v.1.13,2013-04-24 16:04:00,
2013-04-24 09:06:00,-999.9,-99.9,29.78,NNE,23,4.0,8.0,37,0.00,,,0.00,Wunderground v.1.13,2013-04-24 16:06:00,
2013-04-24 09:08:00,-999.9,-99.9,29.80,NNE,23,8.0,13.0,37,0.00,,,0.00,Wunderground v.1.13,2013-04-24 16:08:00,
2013-04-24 09:10:00,-999.9,-99.9,29.80,NNE,23,8.0,13.0,37,0.00,,,0.00,Wunderground v.1.13,2013-04-24 16:10:00,
2013-04-24 09:12:00,-999.9,-99.9,29.80,NNE,23,8.0,13.0,37,0.00,,,0.00,Wunderground v.1.13,2013-04-24 16:12:00,
2013-04-24 09:14:00,-999.9,-99.9,29.80,NNE,23,8.0,13.0,37,0.00,,,0.00,Wunderground v.1.13,2013-04-24 16:14:00,
2013-04-24 09:16:00,-999.9,-99.9,29.80,NNE,23,8.0,13.0,37,0.00,,,0.00,Wunderground v.1.13,2013-04-24 16:16:00,
2013-04-24 09:18:00,-999.9,-99.9,29.80,NNE,23,8.0,13.0,37,0.00,,,0.00,Wunderground v.1.13,2013-04-24 16:18:00,
2013-04-24 09:20:00,-999.9,-99.9,29.80,NNE,23,8.0,13.0,37,0.00,,,0.00,Wunderground v.1.13,2013-04-24 16:20:00,
2013-04-24 09:22:00,-999.9,-99.9,29.80,NNE,23,8.0,13.0,37,0.00,,,0.00,Wunderground v.1.13,2013-04-24 16:22:00,
2013-04-24 09:24:00,-999.9,-99.9,29.79,NNE,23,8.0,11.0,37,0.00,,,0.00,Wunderground v.1.13,2013-04-24 16:24:00,
2013-04-24 09:26:00,-999.9,-99.9,29.79,NNE,23,8.0,11.0,37,0.00,,,0.00,Wunderground v.1.13,2013-04-24 16:26:00,
2013-04-24 09:28:00,-999.9,-99.9,29.79,NNE,23,8.0,11.0,37,0.00,,,0.00,Wunderground v.1.13,2013-04-24 16:28:00,
2013-04-24 09:30:00,-999.9,-99.9,29.79,NNE,23,8.0,11.0,37,0.00,,,0.00,Wunderground v.1.13,2013-04-24 16:30:00,
2013-04-24 09:32:00,-999.9,-99.9,29.79,NNE,23,8.0,11.0,37,0.00,,,0.00,Wunderground v.1.13,2013-04-24 16:32:00,
2013-04-24 09:34:00,-999.9,-99.9,29.79,NNE,23,8.0,11.0,37,0.00,,,0.00,Wunderground v.1.13,2013-04-24 16:34:00,
2013-04-24 09:36:00,-999.9,-99.9,29.79,NNE,23,8.0,11.0,37,0.00,,,0.00,Wunderground v.1.13,2013-04-24 16:36:00,
2013-04-24 09:38:00,-999.9,-99.9,29.79,NNE,23,7.0,11.0,37,0.00,,,0.00,Wunderground v.1.13,2013-04-24 16:38:00,
2013-04-24 09:40:00,-999.9,-99.9,29.79,NNE,23,7.0,11.0,37,0.00,,,0.00,Wunderground v.1.13,2013-04-24 16:40:00,
2013-04-24 09:42:00,-999.9,-99.9,29.79,NNE,23,7.0,11.0,37,0.00,,,0.00,Wunderground v.1.13,2013-04-24 16:42:00,
2013-04-24 09:44:00,-999.9,-99.9,29.79,NNE,23,7.0,11.0,37,0.00,,,0.00,Wunderground v.1.13,2013-04-24 16:44:00,
2013-04-24 09:46:00,-999.9,-99.9,29.79,NNE,23,7.0,11.0,37,0.00,,,0.00,Wunderground v.1.13,2013-04-24 16:46:00,
2013-04-24 09:48:00,-999.9,-99.9,29.79,NNE,23,7.0,11.0,37,0.00,,,0.00,Wunderground v.1.13,2013-04-24 16:48:00,
2013-04-24 09:50:00,-999.9,-99.9,29.79,NNE,23,7.0,11.0,37,0.00,,,0.00,Wunderground v.1.13,2013-04-24 16:50:00,
2013-04-24 09:52:00,-999.9,-99.9,29.79,NNE,23,7.0,11.0,37,0.00,,,0.00,Wunderground v.1.13,2013-04-24 16:52:00,
2013-04-24 09:54:00,-999.9,-99.9,29.78,NNE,23,11.0,13.0,37,0.00,,,0.00,Wunderground v.1.13,2013-04-24 16:54:00,
2013-04-24 09:56:00,-999.9,-99.9,29.78,NNE,23,11.0,13.0,37,0.00,,,0.00,Wunderground v.1.13,2013-04-24 16:56:00,
2013-04-24 09:58:00,-999.9,-99.9,29.78,NNE,23,11.0,13.0,37,0.00,,,0.00,Wunderground v.1.13,2013-04-24 16:58:00,
2013-04-24 10:00:00,-999.9,-99.9,29.78,NNE,23,11.0,13.0,37,0.00,,,0.00,Wunderground v.1.13,2013-04-24 17:00:00,
2013-04-24 10:02:00,-999.9,-99.9,29.78,NNE,23,11.0,13.0,37,0.00,,,0.00,Wunderground v.1.13,2013-04-24 17:02:00,
2013-04-24 10:04:00,-999.9,-99.9,29.78,NNE,23,11.0,13.0,37,0.00,,,0.00,Wunderground v.1.13,2013-04-24 17:04:00,
2013-04-24 10:06:00,-999.9,-99.9,29.78,NNE,23,11.0,13.0,37,0.00,,,0.00,Wunderground v.1.13,2013-04-24 17:06:00,
2013-04-24 10:08:00,-999.9,-99.9,29.79,NNE,23,8.0,11.0,37,0.00,,,0.00,Wunderground v.1.13,2013-04-24 17:08:00,
2013-04-24 10:10:00,-999.9,-99.9,29.79,NNE,23,8.0,11.0,37,0.00,,,0.00,Wunderground v.1.13,2013-04-24 17:10:00,
2013-04-24 10:12:00,-999.9,-99.9,29.79,NNE,23,8.0,11.0,37,0.00,,,0.00,Wunderground v.1.13,2013-04-24 17:12:00,
2013-04-24 10:14:00,-999.9,-99.9,29.79,NNE,23,8.0,11.0,37,0.00,,,0.00,Wunderground v.1.13,2013-04-24 17:14:00,
2013-04-24 10:16:00,-999.9,-99.9,29.79,NNE,23,8.0,11.0,37,0.00,,,0.00,Wunderground v.1.13,2013-04-24 17:16:00,
2013-04-24 10:18:00,-999.9,-99.9,29.79,NNE,23,8.0,11.0,37,0.00,,,0.00,Wunderground v.1.13,2013-04-24 17:18:00,
2013-04-24 10:20:00,-999.9,-99.9,29.79,NNE,23,8.0,11.0,37,0.00,,,0.00,Wunderground v.1.13,2013-04-24 17:20:00,
2013-04-24 10:22:00,-999.9,-99.9,29.79,NNE,23,8.0,11.0,37,0.00,,,0.00,Wunderground v.1.13,2013-04-24 17:22:00,
2013-04-24 10:24:00,-999.9,-99.9,29.78,NNE,23,7.0,10.0,37,0.00,,,0.00,Wunderground v.1.13,2013-04-24 17:24:00,
2013-04-24 10:26:00,-999.9,-99.9,29.78,NNE,23,7.0,10.0,37,0.00,,,0.00,Wunderground v.1.13,2013-04-24 17:26:00,
2013-04-24 10:28:00,-999.9,-99.9,29.78,NNE,23,7.0,10.0,37,0.00,,,0.00,Wunderground v.1.13,2013-04-24 17:28:00,
2013-04-24 10:30:00,-999.9,-99.9,29.78,NNE,23,7.0,10.0,37,0.00,,,0.00,Wunderground v.1.13,2013-04-24 17:30:00,
2013-04-24 10:32:00,-999.9,-99.9,29.78,NNE,23,7.0,10.0,37,0.00,,,0.00,Wunderground v.1.13,2013-04-24 17:32:00,
2013-04-24 10:34:00,-999.9,-99.9,29.78,NNE,23,7.0,10.0,37,0.00,,,0.00,Wunderground v.1.13,2013-04-24 17:34:00,
2013-04-24 10:36:00,-999.9,-99.9,29.78,NNE,23,7.0,10.0,37,0.00,,,0.00,Wunderground v.1.13,2013-04-24 17:36:00,
2013-04-24 10:38:00,-999.9,-99.9,29.77,North,0,7.0,9.0,37,0.00,,,0.00,Wunderground v.1.13,2013-04-24 17:38:00,
2013-04-24 10:40:00,-999.9,-99.9,29.77,North,0,7.0,9.0,37,0.00,,,0.00,Wunderground v.1.13,2013-04-24 17:40:00,
2013-04-24 10:42:00,-999.9,-99.9,29.77,North,0,7.0,9.0,37,0.00,,,0.00,Wunderground v.1.13,2013-04-24 17:42:00,
2013-04-24 10:44:00,-999.9,-99.9,29.77,North,0,7.0,9.0,37,0.00,,,0.00,Wunderground v.1.13,2013-04-24 17:44:00,
2013-04-24 10:46:00,-999.9,-99.9,29.77,North,0,7.0,9.0,37,0.00,,,0.00,Wunderground v.1.13,2013-04-24 17:46:00,
2013-04-24 10:48:00,-999.9,-99.9,29.77,North,0,7.0,9.0,37,0.00,,,0.00,Wunderground v.1.13,2013-04-24 17:48:00,
2013-04-24 10:50:00,-999.9,-99.9,29.77,North,0,7.0,9.0,37,0.00,,,0.00,Wunderground v.1.13,2013-04-24 17:50:00,
2013-04-24 10:52:00,-999.9,-99.9,29.77,North,0,7.0,9.0,37,0.00,,,0.00,Wunderground v.1.13,2013-04-24 17:52:00,
2013-04-24 10:54:00,-999.9,-99.9,29.76,NE,45,8.0,13.0,37,0.00,,,0.00,Wunderground v.1.13,2013-04-24 17:54:00,
2013-04-24 10:56:00,-999.9,-99.9,29.76,NE,45,8.0,13.0,37,0.00,,,0.00,Wunderground v.1.13,2013-04-24 17:56:00,
2013-04-24 10:58:00,-999.9,-99.9,29.76,NE,45,8.0,13.0,37,0.00,,,0.00,Wunderground v.1.13,2013-04-24 17:58:00,
2013-04-24 11:00:00,-999.9,-99.9,29.76,NE,45,8.0,13.0,37,0.00,,,0.00,Wunderground v.1.13,2013-04-24 18:00:00,
2013-04-24 11:02:00,-999.9,-99.9,29.76,NE,45,8.0,13.0,37,0.00,,,0.00,Wunderground v.1.13,2013-04-24 18:02:00,
2013-04-24 11:04:00,-999.9,-99.9,29.76,NE,45,8.0,13.0,37,0.00,,,0.00,Wunderground v.1.13,2013-04-24 18:04:00,
2013-04-24 11:06:00,-999.9,-99.9,29.76,NE,45,8.0,13.0,37,0.00,,,0.00,Wunderground v.1.13,2013-04-24 18:06:00,
2013-04-24 11:08:00,-999.9,-99.9,29.76,NNE,23,7.0,9.0,37,0.00,,,0.00,Wunderground v.1.13,2013-04-24 18:08:00,
2013-04-24 11:10:00,-999.9,-99.9,29.76,NNE,23,7.0,9.0,37,0.00,,,0.00,Wunderground v.1.13,2013-04-24 18:10:00,
2013-04-24 11:12:00,-999.9,-99.9,29.76,NNE,23,7.0,9.0,37,0.00,,,0.00,Wunderground v.1.13,2013-04-24 18:12:00,
2013-04-24 11:14:00,-999.9,-99.9,29.76,NNE,23,7.0,9.0,37,0.00,,,0.00,Wunderground v.1.13,2013-04-24 18:14:00,
2013-04-24 11:16:00,-999.9,-99.9,29.76,NNE,23,7.0,9.0,37,0.00,,,0.00,Wunderground v.1.13,2013-04-24 18:16:00,
2013-04-24 11:18:00,-999.9,-99.9,29.76,NNE,23,7.0,9.0,37,0.00,,,0.00,Wunderground v.1.13,2013-04-24 18:18:00,
2013-04-24 11:20:00,-999.9,-99.9,29.76,NNE,23,7.0,9.0,37,0.00,,,0.00,Wunderground v.1.13,2013-04-24 18:20:00,
2013-04-24 11:22:00,-999.9,-99.9,29.76,NNE,23,7.0,9.0,37,0.00,,,0.00,Wunderground v.1.13,2013-04-24 18:22:00,
2013-04-24 11:24:00,-999.9,-99.9,29.75,East,90,6.0,11.0,37,0.00,,,0.00,Wunderground v.1.13,2013-04-24 18:24:00,
2013-04-24 11:26:00,-999.9,-99.9,29.75,East,90,6.0,11.0,37,0.00,,,0.00,Wunderground v.1.13,2013-04-24 18:26:00,
2013-04-24 11:28:00,-999.9,-99.9,29.75,East,90,6.0,11.0,37,0.00,,,0.00,Wunderground v.1.13,2013-04-24 18:28:00,
2013-04-24 11:30:00,-999.9,-99.9,29.75,East,90,6.0,11.0,37,0.00,,,0.00,Wunderground v.1.13,2013-04-24 18:30:00,
2013-04-24 11:32:00,-999.9,-99.9,29.75,East,90,6.0,11.0,37,0.00,,,0.00,Wunderground v.1.13,2013-04-24 18:32:00,
2013-04-24 11:34:00,-999.9,-99.9,29.75,East,90,6.0,11.0,37,0.00,,,0.00,Wunderground v.1.13,2013-04-24 18:34:00,
2013-04-24 11:36:00,-999.9,-99.9,29.75,East,90,6.0,11.0,37,0.00,,,0.00,Wunderground v.1.13,2013-04-24 18:36:00,
2013-04-24 11:38:00,-999.9,-99.9,29.74,ENE,68,6.0,7.0,37,0.00,,,0.00,Wunderground v.1.13,2013-04-24 18:38:00,
2013-04-24 11:40:00,-999.9,-99.9,29.74,ENE,68,6.0,7.0,37,0.00,,,0.00,Wunderground v.1.13,2013-04-24 18:40:00,
2013-04-24 11:42:00,-999.9,-99.9,29.74,ENE,68,6.0,7.0,37,0.00,,,0.00,Wunderground v.1.13,2013-04-24 18:42:00,
2013-04-24 11:44:00,-999.9,-99.9,29.74,ENE,68,6.0,7.0,37,0.00,,,0.00,Wunderground v.1.13,2013-04-24 18:44:00,
2013-04-24 11:46:00,-999.9,-99.9,29.74,ENE,68,6.0,7.0,37,0.00,,,0.00,Wunderground v.1.13,2013-04-24 18:46:00,
2013-04-24 11:48:00,-999.9,-99.9,29.74,ENE,68,6.0,7.0,37,0.00,,,0.00,Wunderground v.1.13,2013-04-24 18:48:00,
2013-04-24 11:50:00,-999.9,-99.9,29.74,ENE,68,6.0,7.0,37,0.00,,,0.00,Wunderground v.1.13,2013-04-24 18:50:00,
2013-04-24 11:52:00,-999.9,-99.9,29.74,ENE,68,6.0,7.0,37,0.00,,,0.00,Wunderground v.1.13,2013-04-24 18:52:00,
2013-04-24 11:54:00,-999.9,-99.9,29.73,NE,45,7.0,11.0,37,0.00,,,0.00,Wunderground v.1.13,2013-04-24 18:54:00,
2013-04-24 11:56:00,-999.9,-99.9,29.73,NE,45,7.0,11.0,37,0.00,,,0.00,Wunderground v.1.13,2013-04-24 18:56:00,
2013-04-24 11:58:00,-999.9,-99.9,29.73,NE,45,7.0,11.0,37,0.00,,,0.00,Wunderground v.1.13,2013-04-24 18:58:00,
2013-04-24 12:00:00,-999.9,-99.9,29.73,NE,45,7.0,11.0,37,0.00,,,0.00,Wunderground v.1.13,2013-04-24 19:00:00,
2013-04-24 12:02:00,-999.9,-99.9,29.73,NE,45,7.0,11.0,37,0.00,,,0.00,Wunderground v.1.13,2013-04-24 19:02:00,
2013-04-24 12:04:00,-999.9,-99.9,29.73,NE,45,7.0,11.0,37,0.00,,,0.00,Wunderground v.1.13,2013-04-24 19:04:00,
2013-04-24 12:06:00,-999.9,-99.9,29.73,NE,45,7.0,11.0,37,0.00,,,0.00,Wunderground v.1.13,2013-04-24 19:06:00,
2013-04-24 12:08:00,-999.9,-99.9,29.73,NE,45,8.0,11.0,37,0.00,,,0.00,Wunderground v.1.13,2013-04-24 19:08:00,
2013-04-24 12:10:00,-999.9,-99.9,29.73,NE,45,8.0,11.0,37,0.00,,,0.00,Wunderground v.1.13,2013-04-24 19:10:00,
2013-04-24 12:12:00,-999.9,-99.9,29.73,NE,45,8.0,11.0,37,0.00,,,0.00,Wunderground v.1.13,2013-04-24 19:12:00,
2013-04-24 12:14:00,-999.9,-99.9,29.73,NE,45,8.0,11.0,37,0.00,,,0.00,Wunderground v.1.13,2013-04-24 19:14:00,
2013-04-24 12:16:00,-999.9,-99.9,29.73,NE,45,8.0,11.0,37,0.00,,,0.00,Wunderground v.1.13,2013-04-24 19:16:00,
2013-04-24 12:18:00,-999.9,-99.9,29.73,NE,45,8.0,11.0,37,0.00,,,0.00,Wunderground v.1.13,2013-04-24 19:18:00,
2013-04-24 12:20:00,-999.9,-99.9,29.73,NE,45,8.0,11.0,37,0.00,,,0.00,Wunderground v.1.13,2013-04-24 19:20:00,
2013-04-24 12:22:00,-999.9,-99.9,29.73,NE,45,8.0,11.0,37,0.00,,,0.00,Wunderground v.1.13,2013-04-24 19:22:00,
2013-04-24 12:24:00,-999.9,-99.9,29.73,NNE,23,4.0,6.0,37,0.00,,,0.00,Wunderground v.1.13,2013-04-24 19:24:00,
2013-04-24 12:26:00,-999.9,-99.9,29.73,NNE,23,4.0,6.0,37,0.00,,,0.00,Wunderground v.1.13,2013-04-24 19:26:00,
2013-04-24 12:28:00,-999.9,-99.9,29.73,NNE,23,4.0,6.0,37,0.00,,,0.00,Wunderground v.1.13,2013-04-24 19:28:00,
2013-04-24 12:30:00,-999.9,-99.9,29.73,NNE,23,4.0,6.0,37,0.00,,,0.00,Wunderground v.1.13,2013-04-24 19:30:00,
2013-04-24 12:32:00,-999.9,-99.9,29.73,NNE,23,4.0,6.0,37,0.00,,,0.00,Wunderground v.1.13,2013-04-24 19:32:00,
2013-04-24 12:34:00,-999.9,-99.9,29.73,NNE,23,4.0,6.0,37,0.00,,,0.00,Wunderground v.1.13,2013-04-24 19:34:00,
2013-04-24 12:36:00,-999.9,-99.9,29.73,NNE,23,4.0,6.0,37,0.00,,,0.00,Wunderground v.1.13,2013-04-24 19:36:00,
2013-04-24 12:38:00,-999.9,-99.9,29.72,North,0,9.0,13.0,37,0.00,,,0.00,Wunderground v.1.13,2013-04-24 19:38:00,
2013-04-24 12:40:00,-999.9,-99.9,29.72,North,0,9.0,13.0,37,0.00,,,0.00,Wunderground v.1.13,2013-04-24 19:40:00,
2013-04-24 12:42:00,-999.9,-99.9,29.72,North,0,9.0,13.0,37,0.00,,,0.00,Wunderground v.1.13,2013-04-24 19:42:00,
2013-04-24 12:44:00,-999.9,-99.9,29.72,North,0,9.0,13.0,37,0.00,,,0.00,Wunderground v.1.13,2013-04-24 19:44:00,
2013-04-24 12:46:00,-999.9,-99.9,29.72,North,0,9.0,13.0,37,0.00,,,0.00,Wunderground v.1.13,2013-04-24 19:46:00,
2013-04-24 12:48:00,-999.9,-99.9,29.72,North,0,9.0,13.0,37,0.00,,,0.00,Wunderground v.1.13,2013-04-24 19:48:00,
2013-04-24 12:50:00,-999.9,-99.9,29.72,North,0,9.0,13.0,37,0.00,,,0.00,Wunderground v.1.13,2013-04-24 19:50:00,
2013-04-24 12:52:00,-999.9,-99.9,29.72,North,0,9.0,13.0,37,0.00,,,0.00,Wunderground v.1.13,2013-04-24 19:52:00,
2013-04-24 12:54:00,-999.9,-99.9,29.71,NNE,23,5.0,6.0,37,0.00,,,0.00,Wunderground v.1.13,2013-04-24 19:54:00,
2013-04-24 12:56:00,-999.9,-99.9,29.71,NNE,23,5.0,6.0,37,0.00,,,0.00,Wunderground v.1.13,2013-04-24 19:56:00,
2013-04-24 12:58:00,-999.9,-99.9,29.71,NNE,23,5.0,6.0,37,0.00,,,0.00,Wunderground v.1.13,2013-04-24 19:58:00,
2013-04-24 13:00:00,-999.9,-99.9,29.71,NNE,23,5.0,6.0,37,0.00,,,0.00,Wunderground v.1.13,2013-04-24 20:00:00,
2013-04-24 13:02:00,-999.9,-99.9,29.71,NNE,23,5.0,6.0,37,0.00,,,0.00,Wunderground v.1.13,2013-04-24 20:02:00,
2013-04-24 13:04:00,-999.9,-99.9,29.71,NNE,23,5.0,6.0,37,0.00,,,0.00,Wunderground v.1.13,2013-04-24 20:04:00,
2013-04-24 13:06:00,-999.9,-99.9,29.71,NNE,23,5.0,6.0,37,0.00,,,0.00,Wunderground v.1.13,2013-04-24 20:06:00,
2013-04-24 13:08:00,-999.9,-99.9,29.71,NNE,23,5.0,6.0,37,0.00,,,0.00,Wunderground v.1.13,2013-04-24 20:08:00,
2013-04-24 13:10:00,-999.9,-99.9,29.71,NNE,23,5.0,6.0,37,0.00,,,0.00,Wunderground v.1.13,2013-04-24 20:10:00,
2013-04-24 13:12:00,-999.9,-99.9,29.71,NNE,23,5.0,6.0,37,0.00,,,0.00,Wunderground v.1.13,2013-04-24 20:12:00,
2013-04-24 13:14:00,-999.9,-99.9,29.71,NNE,23,5.0,6.0,37,0.00,,,0.00,Wunderground v.1.13,2013-04-24 20:14:00,
2013-04-24 13:16:00,-999.9,-99.9,29.71,NNE,23,5.0,6.0,37,0.00,,,0.00,Wunderground v.1.13,2013-04-24 20:16:00,
2013-04-24 13:18:00,-999.9,-99.9,29.71,NNE,23,5.0,6.0,37,0.00,,,0.00,Wunderground v.1.13,2013-04-24 20:18:00,
2013-04-24 13:22:00,-999.9,-99.9,29.71,NNE,23,5.0,6.0,37,0.00,,,0.00,Wunderground v.1.13,2013-04-24 20:22:00,
2013-04-24 13:24:00,-999.9,-99.9,29.71,NE,45,8.0,13.0,37,0.00,,,0.00,Wunderground v.1.13,2013-04-24 20:24:00,
2013-04-24 13:26:00,-999.9,-99.9,29.71,NE,45,8.0,13.0,37,0.00,,,0.00,Wunderground v.1.13,2013-04-24 20:26:00,
2013-04-24 13:28:00,-999.9,-99.9,29.71,NE,45,8.0,13.0,37,0.00,,,0.00,Wunderground v.1.13,2013-04-24 20:28:00,
2013-04-24 13:30:00,-999.9,-99.9,29.71,NE,45,8.0,13.0,37,0.00,,,0.00,Wunderground v.1.13,2013-04-24 20:30:00,
2013-04-24 13:32:00,-999.9,-99.9,29.71,NE,45,8.0,13.0,37,0.00,,,0.00,Wunderground v.1.13,2013-04-24 20:32:00,
2013-04-24 13:34:00,-999.9,-99.9,29.71,NE,45,8.0,13.0,37,0.00,,,0.00,Wunderground v.1.13,2013-04-24 20:34:00,
2013-04-24 13:36:00,-999.9,-99.9,29.71,NE,45,8.0,13.0,37,0.00,,,0.00,Wunderground v.1.13,2013-04-24 20:36:00,
2013-04-24 13:38:00,-999.9,-99.9,29.70,NE,45,9.0,16.0,37,0.00,,,0.00,Wunderground v.1.13,2013-04-24 20:38:00,
2013-04-24 13:40:00,-999.9,-99.9,29.70,NE,45,9.0,16.0,37,0.00,,,0.00,Wunderground v.1.13,2013-04-24 20:40:00,
2013-04-24 13:42:00,-999.9,-99.9,29.70,NE,45,9.0,16.0,37,0.00,,,0.00,Wunderground v.1.13,2013-04-24 20:42:00,
2013-04-24 13:44:00,-999.9,-99.9,29.70,NE,45,9.0,16.0,37,0.00,,,0.00,Wunderground v.1.13,2013-04-24 20:44:00,
2013-04-24 13:46:00,-999.9,-99.9,29.70,NE,45,9.0,16.0,37,0.00,,,0.00,Wunderground v.1.13,2013-04-24 20:46:00,
2013-04-24 13:48:00,-999.9,-99.9,29.70,NE,45,9.0,16.0,37,0.00,,,0.00,Wunderground v.1.13,2013-04-24 20:48:00,
2013-04-24 13:50:00,-999.9,-99.9,29.70,NE,45,9.0,16.0,37,0.00,,,0.00,Wunderground v.1.13,2013-04-24 20:50:00,
2013-04-24 13:52:00,-999.9,-99.9,29.70,NE,45,9.0,16.0,37,0.00,,,0.00,Wunderground v.1.13,2013-04-24 20:52:00,
2013-04-24 13:54:00,82.2,53.3,29.64,NE,45,7.0,12.0,37,0.00,,,0.00,Wunderground v.1.13,2013-04-24 20:54:00,
2013-04-24 13:56:00,82.2,53.3,29.64,NE,45,7.0,12.0,37,0.00,,,0.00,Wunderground v.1.13,2013-04-24 20:56:00,
2013-04-24 13:58:00,82.2,53.3,29.64,NE,45,7.0,12.0,37,0.00,,,0.00,Wunderground v.1.13,2013-04-24 20:58:00,
2013-04-24 14:00:00,82.2,53.3,29.64,NE,45,7.0,12.0,37,0.00,,,0.00,Wunderground v.1.13,2013-04-24 21:00:00,
2013-04-24 14:02:00,82.2,53.3,29.64,NE,45,7.0,12.0,37,0.00,,,0.00,Wunderground v.1.13,2013-04-24 21:02:00,
2013-04-24 14:04:00,82.2,53.3,29.64,NE,45,7.0,12.0,37,0.00,,,0.00,Wunderground v.1.13,2013-04-24 21:04:00,
2013-04-24 14:06:00,82.2,53.3,29.64,NE,45,7.0,12.0,37,0.00,,,0.00,Wunderground v.1.13,2013-04-24 21:06:00,
2013-04-24 14:08:00,-999.9,-99.9,29.64,SE,135,5.0,8.0,37,0.00,,,0.00,Wunderground v.1.13,2013-04-24 21:08:00,
2013-04-24 14:10:00,-999.9,-99.9,29.64,SE,135,5.0,8.0,37,0.00,,,0.00,Wunderground v.1.13,2013-04-24 21:10:00,
2013-04-24 14:12:00,-999.9,-99.9,29.64,SE,135,5.0,8.0,37,0.00,,,0.00,Wunderground v.1.13,2013-04-24 21:12:00,
2013-04-24 14:14:00,-999.9,-99.9,29.64,SE,135,5.0,8.0,37,0.00,,,0.00,Wunderground v.1.13,2013-04-24 21:14:00,
2013-04-24 14:16:00,-999.9,-99.9,29.64,SE,135,5.0,8.0,37,0.00,,,0.00,Wunderground v.1.13,2013-04-24 21:16:00,
2013-04-24 14:18:00,-999.9,-99.9,29.64,SE,135,5.0,8.0,37,0.00,,,0.00,Wunderground v.1.13,2013-04-24 21:18:00,
2013-04-24 14:20:00,-999.9,-99.9,29.64,SE,135,5.0,8.0,37,0.00,,,0.00,Wunderground v.1.13,2013-04-24 21:20:00,
2013-04-24 14:22:00,-999.9,-99.9,29.64,SE,135,5.0,8.0,37,0.00,,,0.00,Wunderground v.1.13,2013-04-24 21:22:00,
2013-04-24 14:24:00,-999.9,-99.9,29.64,North,0,5.0,8.0,37,0.00,,,0.00,Wunderground v.1.13,2013-04-24 21:24:00,
2013-04-24 14:26:00,-999.9,-99.9,29.64,North,0,5.0,8.0,37,0.00,,,0.00,Wunderground v.1.13,2013-04-24 21:26:00,
2013-04-24 14:28:00,-999.9,-99.9,29.64,North,0,5.0,8.0,37,0.00,,,0.00,Wunderground v.1.13,2013-04-24 21:28:00,
2013-04-24 14:30:00,-999.9,-99.9,29.64,North,0,5.0,8.0,37,0.00,,,0.00,Wunderground v.1.13,2013-04-24 21:30:00,
2013-04-24 14:32:00,-999.9,-99.9,29.64,North,0,5.0,8.0,37,0.00,,,0.00,Wunderground v.1.13,2013-04-24 21:32:00,
2013-04-24 14:34:00,-999.9,-99.9,29.64,North,0,5.0,8.0,37,0.00,,,0.00,Wunderground v.1.13,2013-04-24 21:34:00,
2013-04-24 14:36:00,-999.9,-99.9,29.64,North,0,5.0,8.0,37,0.00,,,0.00,Wunderground v.1.13,2013-04-24 21:36:00,
2013-04-24 14:38:00,-999.9,-99.9,29.63,SE,135,4.0,6.0,37,0.00,,,0.00,Wunderground v.1.13,2013-04-24 21:38:00,
2013-04-24 14:40:00,-999.9,-99.9,29.63,SE,135,4.0,6.0,37,0.00,,,0.00,Wunderground v.1.13,2013-04-24 21:40:00,
2013-04-24 14:42:00,-999.9,-99.9,29.63,SE,135,4.0,6.0,37,0.00,,,0.00,Wunderground v.1.13,2013-04-24 21:42:00,
2013-04-24 14:44:00,-999.9,-99.9,29.63,SE,135,4.0,6.0,37,0.00,,,0.00,Wunderground v.1.13,2013-04-24 21:44:00,
2013-04-24 14:46:00,-999.9,-99.9,29.63,SE,135,4.0,6.0,37,0.00,,,0.00,Wunderground v.1.13,2013-04-24 21:46:00,
2013-04-24 14:48:00,-999.9,-99.9,29.63,SE,135,4.0,6.0,37,0.00,,,0.00,Wunderground v.1.13,2013-04-24 21:48:00,
2013-04-24 14:50:00,-999.9,-99.9,29.63,SE,135,4.0,6.0,37,0.00,,,0.00,Wunderground v.1.13,2013-04-24 21:50:00,
2013-04-24 14:52:00,-999.9,-99.9,29.63,SE,135,4.0,6.0,37,0.00,,,0.00,Wunderground v.1.13,2013-04-24 21:52:00,
2013-04-24 14:54:00,83.4,54.4,29.62,NNE,23,7.0,10.0,37,0.00,,,0.00,Wunderground v.1.13,2013-04-24 21:54:00,
2013-04-24 14:56:00,83.4,54.4,29.62,NNE,23,7.0,10.0,37,0.00,,,0.00,Wunderground v.1.13,2013-04-24 21:56:00,
2013-04-24 14:58:00,83.4,54.4,29.62,NNE,23,7.0,10.0,37,0.00,,,0.00,Wunderground v.1.13,2013-04-24 21:58:00,
2013-04-24 15:00:00,83.4,54.4,29.62,NNE,23,7.0,10.0,37,0.00,,,0.00,Wunderground v.1.13,2013-04-24 22:00:00,
2013-04-24 15:02:00,83.4,54.4,29.62,NNE,23,7.0,10.0,37,0.00,,,0.00,Wunderground v.1.13,2013-04-24 22:02:00,
2013-04-24 15:04:00,83.4,54.4,29.62,NNE,23,7.0,10.0,37,0.00,,,0.00,Wunderground v.1.13,2013-04-24 22:04:00,
2013-04-24 15:06:00,83.4,54.4,29.62,NNE,23,7.0,10.0,37,0.00,,,0.00,Wunderground v.1.13,2013-04-24 22:06:00,
2013-04-24 15:08:00,81.4,52.6,29.63,SSE,158,4.0,7.0,37,0.00,,,0.00,Wunderground v.1.13,2013-04-24 22:08:00,
2013-04-24 15:10:00,81.4,52.6,29.63,SSE,158,4.0,7.0,37,0.00,,,0.00,Wunderground v.1.13,2013-04-24 22:10:00,
2013-04-24 15:12:00,81.4,52.6,29.63,SSE,158,4.0,7.0,37,0.00,,,0.00,Wunderground v.1.13,2013-04-24 22:12:00,
2013-04-24 15:14:00,81.4,52.6,29.63,SSE,158,4.0,7.0,37,0.00,,,0.00,Wunderground v.1.13,2013-04-24 22:14:00,
2013-04-24 15:16:00,81.4,52.6,29.63,SSE,158,4.0,7.0,37,0.00,,,0.00,Wunderground v.1.13,2013-04-24 22:16:00,
2013-04-24 15:18:00,81.4,52.6,29.63,SSE,158,4.0,7.0,37,0.00,,,0.00,Wunderground v.1.13,2013-04-24 22:18:00,
2013-04-24 15:20:00,81.4,52.6,29.63,SSE,158,4.0,7.0,37,0.00,,,0.00,Wunderground v.1.13,2013-04-24 22:20:00,
2013-04-24 15:22:00,81.4,52.6,29.63,SSE,158,4.0,7.0,37,0.00,,,0.00,Wunderground v.1.13,2013-04-24 22:22:00,
2013-04-24 15:24:00,81.8,53.0,29.62,South,180,5.0,10.0,37,0.00,,,0.00,Wunderground v.1.13,2013-04-24 22:24:00,
2013-04-24 15:26:00,81.8,53.0,29.62,South,180,5.0,10.0,37,0.00,,,0.00,Wunderground v.1.13,2013-04-24 22:26:00,
2013-04-24 15:28:00,81.8,53.0,29.62,South,180,5.0,10.0,37,0.00,,,0.00,Wunderground v.1.13,2013-04-24 22:28:00,
2013-04-24 15:30:00,81.8,53.0,29.62,South,180,5.0,10.0,37,0.00,,,0.00,Wunderground v.1.13,2013-04-24 22:30:00,
2013-04-24 15:32:00,81.8,53.0,29.62,South,180,5.0,10.0,37,0.00,,,0.00,Wunderground v.1.13,2013-04-24 22:32:00,
2013-04-24 15:34:00,81.8,53.0,29.62,South,180,5.0,10.0,37,0.00,,,0.00,Wunderground v.1.13,2013-04-24 22:34:00,
2013-04-24 15:36:00,81.8,53.0,29.62,South,180,5.0,10.0,37,0.00,,,0.00,Wunderground v.1.13,2013-04-24 22:36:00,
2013-04-24 15:38:00,-999.9,-99.9,29.63,South,180,5.0,7.0,37,0.00,,,0.00,Wunderground v.1.13,2013-04-24 22:38:00,
2013-04-24 15:40:00,-999.9,-99.9,29.63,South,180,5.0,7.0,37,0.00,,,0.00,Wunderground v.1.13,2013-04-24 22:40:00,
2013-04-24 15:42:00,-999.9,-99.9,29.63,South,180,5.0,7.0,37,0.00,,,0.00,Wunderground v.1.13,2013-04-24 22:42:00,
2013-04-24 15:44:00,-999.9,-99.9,29.63,South,180,5.0,7.0,37,0.00,,,0.00,Wunderground v.1.13,2013-04-24 22:44:00,
2013-04-24 15:46:00,-999.9,-99.9,29.63,South,180,5.0,7.0,37,0.00,,,0.00,Wunderground v.1.13,2013-04-24 22:46:00,
2013-04-24 15:48:00,-999.9,-99.9,29.63,South,180,5.0,7.0,37,0.00,,,0.00,Wunderground v.1.13,2013-04-24 22:48:00,
2013-04-24 15:50:00,-999.9,-99.9,29.63,South,180,5.0,7.0,37,0.00,,,0.00,Wunderground v.1.13,2013-04-24 22:50:00,
2013-04-24 15:52:00,-999.9,-99.9,29.63,South,180,5.0,7.0,37,0.00,,,0.00,Wunderground v.1.13,2013-04-24 22:52:00,
2013-04-24 15:54:00,-999.9,-99.9,29.63,SSW,203,5.0,8.0,37,0.00,,,0.00,Wunderground v.1.13,2013-04-24 22:54:00,
2013-04-24 15:56:00,-999.9,-99.9,29.63,SSW,203,5.0,8.0,37,0.00,,,0.00,Wunderground v.1.13,2013-04-24 22:56:00,
2013-04-24 15:58:00,-999.9,-99.9,29.63,SSW,203,5.0,8.0,37,0.00,,,0.00,Wunderground v.1.13,2013-04-24 22:58:00,
2013-04-24 16:00:00,-999.9,-99.9,29.63,SSW,203,5.0,8.0,37,0.00,,,0.00,Wunderground v.1.13,2013-04-24 23:00:00,
2013-04-24 16:02:00,-999.9,-99.9,29.63,SSW,203,5.0,8.0,37,0.00,,,0.00,Wunderground v.1.13,2013-04-24 23:02:00,
2013-04-24 16:04:00,-999.9,-99.9,29.63,SSW,203,5.0,8.0,37,0.00,,,0.00,Wunderground v.1.13,2013-04-24 23:04:00,
2013-04-24 16:06:00,-999.9,-99.9,29.63,SSW,203,5.0,8.0,37,0.00,,,0.00,Wunderground v.1.13,2013-04-24 23:06:00,
2013-04-24 16:08:00,-999.9,-99.9,29.72,N/A,-737280,0.0,0.0,-32768,0.00,,,0.00,Wunderground v.1.13,2013-04-24 23:08:00,
2013-04-24 16:10:00,-999.9,-99.9,29.72,N/A,-737280,0.0,0.0,-32768,0.00,,,0.00,Wunderground v.1.13,2013-04-24 23:10:00,
2013-04-24 16:12:00,-999.9,-99.9,29.72,N/A,-737280,0.0,0.0,-32768,0.00,,,0.00,Wunderground v.1.13,2013-04-24 23:12:00,
2013-04-24 16:14:00,-999.9,-99.9,29.72,N/A,-737280,0.0,0.0,-32768,0.00,,,0.00,Wunderground v.1.13,2013-04-24 23:14:00,
2013-04-24 16:16:00,-999.9,-99.9,29.72,N/A,-737280,0.0,0.0,-32768,0.00,,,0.00,Wunderground v.1.13,2013-04-24 23:16:00,
2013-04-24 16:18:00,-999.9,-99.9,29.72,N/A,-737280,0.0,0.0,-32768,0.00,,,0.00,Wunderground v.1.13,2013-04-24 23:18:00,
2013-04-24 16:20:00,-999.9,-99.9,29.72,N/A,-737280,0.0,0.0,-32768,0.00,,,0.00,Wunderground v.1.13,2013-04-24 23:20:00,
2013-04-24 16:22:00,-999.9,-99.9,29.72,N/A,-737280,0.0,0.0,-32768,0.00,,,0.00,Wunderground v.1.13,2013-04-24 23:22:00,
2013-04-24 16:24:00,-999.9,-99.9,29.73,SSW,203,7.0,7.0,-32768,0.00,,,0.00,Wunderground v.1.13,2013-04-24 23:24:00,
2013-04-24 16:26:00,-999.9,-99.9,29.73,SSW,203,7.0,7.0,-32768,0.00,,,0.00,Wunderground v.1.13,2013-04-24 23:26:00,
2013-04-24 16:28:00,-999.9,-99.9,29.73,SSW,203,7.0,7.0,-32768,0.00,,,0.00,Wunderground v.1.13,2013-04-24 23:28:00,
2013-04-24 16:30:00,-999.9,-99.9,29.73,SSW,203,7.0,7.0,-32768,0.00,,,0.00,Wunderground v.1.13,2013-04-24 23:30:00,
2013-04-24 16:32:00,-999.9,-99.9,29.73,SSW,203,7.0,7.0,-32768,0.00,,,0.00,Wunderground v.1.13,2013-04-24 23:32:00,
2013-04-24 16:34:00,-999.9,-99.9,29.73,SSW,203,7.0,7.0,-32768,0.00,,,0.00,Wunderground v.1.13,2013-04-24 23:34:00,
2013-04-24 16:36:00,-999.9,-99.9,29.73,SSW,203,7.0,7.0,-32768,0.00,,,0.00,Wunderground v.1.13,2013-04-24 23:36:00,
2013-04-24 16:38:00,-999.9,-99.9,29.66,SW,225,7.0,10.0,-32768,0.00,,,0.00,Wunderground v.1.13,2013-04-24 23:38:00,
2013-04-24 16:40:00,-999.9,-99.9,29.66,SW,225,7.0,10.0,-32768,0.00,,,0.00,Wunderground v.1.13,2013-04-24 23:40:00,
2013-04-24 16:42:00,-999.9,-99.9,29.66,SW,225,7.0,10.0,-32768,0.00,,,0.00,Wunderground v.1.13,2013-04-24 23:42:00,
2013-04-24 16:44:00,-999.9,-99.9,29.66,SW,225,7.0,10.0,-32768,0.00,,,0.00,Wunderground v.1.13,2013-04-24 23:44:00,
2013-04-24 16:46:00,-999.9,-99.9,29.66,SW,225,7.0,10.0,-32768,0.00,,,0.00,Wunderground v.1.13,2013-04-24 23:46:00,
2013-04-24 16:48:00,-999.9,-99.9,29.66,SW,225,7.0,10.0,-32768,0.00,,,0.00,Wunderground v.1.13,2013-04-24 23:48:00,
2013-04-24 16:50:00,-999.9,-99.9,29.66,SW,225,7.0,10.0,-32768,0.00,,,0.00,Wunderground v.1.13,2013-04-24 23:50:00,
2013-04-24 16:52:00,-999.9,-99.9,29.66,SW,225,7.0,10.0,-32768,0.00,,,0.00,Wunderground v.1.13,2013-04-24 23:52:00,
2013-04-24 16:54:00,-999.9,-99.9,29.67,SSW,203,5.0,8.0,-32768,0.00,,,0.00,Wunderground v.1.13,2013-04-24 23:54:00,
2013-04-24 16:56:00,-999.9,-99.9,29.67,SSW,203,5.0,8.0,-32768,0.00,,,0.00,Wunderground v.1.13,2013-04-24 23:56:00,
2013-04-24 16:58:00,-999.9,-99.9,29.67,SSW,203,5.0,8.0,-32768,0.00,,,0.00,Wunderground v.1.13,2013-04-24 23:58:00,
2013-04-24 17:00:00,-999.9,-99.9,29.67,SSW,203,5.0,8.0,-32768,0.00,,,0.00,Wunderground v.1.13,2013-04-25 00:00:00,
2013-04-24 17:02:00,-999.9,-99.9,29.67,SSW,203,5.0,8.0,-32768,0.00,,,0.00,Wunderground v.1.13,2013-04-25 00:02:00,
2013-04-24 17:04:00,-999.9,-99.9,29.67,SSW,203,5.0,8.0,-32768,0.00,,,0.00,Wunderground v.1.13,2013-04-25 00:04:00,
2013-04-24 17:06:00,-999.9,-99.9,29.67,SSW,203,5.0,8.0,-32768,0.00,,,0.00,Wunderground v.1.13,2013-04-25 00:06:00,
2013-04-24 17:08:00,-999.9,-99.9,29.68,SSW,203,8.0,12.0,-32768,0.00,,,0.00,Wunderground v.1.13,2013-04-25 00:08:00,
2013-04-24 17:10:00,-999.9,-99.9,29.68,SSW,203,8.0,12.0,-32768,0.00,,,0.00,Wunderground v.1.13,2013-04-25 00:10:00,
2013-04-24 17:12:00,-999.9,-99.9,29.68,SSW,203,8.0,12.0,-32768,0.00,,,0.00,Wunderground v.1.13,2013-04-25 00:12:00,
2013-04-24 17:14:00,-999.9,-99.9,29.68,SSW,203,8.0,12.0,-32768,0.00,,,0.00,Wunderground v.1.13,2013-04-25 00:14:00,
2013-04-24 17:16:00,-999.9,-99.9,29.68,SSW,203,8.0,12.0,-32768,0.00,,,0.00,Wunderground v.1.13,2013-04-25 00:16:00,
2013-04-24 17:18:00,-999.9,-99.9,29.68,SSW,203,8.0,12.0,-32768,0.00,,,0.00,Wunderground v.1.13,2013-04-25 00:18:00,
2013-04-24 17:20:00,-999.9,-99.9,29.68,SSW,203,8.0,12.0,-32768,0.00,,,0.00,Wunderground v.1.13,2013-04-25 00:20:00,
2013-04-24 17:22:00,-999.9,-99.9,29.68,SSW,203,8.0,12.0,-32768,0.00,,,0.00,Wunderground v.1.13,2013-04-25 00:22:00,
2013-04-24 17:24:00,-999.9,-99.9,29.69,SW,225,7.0,11.0,49,0.00,,,0.00,Wunderground v.1.13,2013-04-25 00:24:00,
2013-04-24 17:26:00,-999.9,-99.9,29.69,SW,225,7.0,11.0,49,0.00,,,0.00,Wunderground v.1.13,2013-04-25 00:26:00,
2013-04-24 17:28:00,-999.9,-99.9,29.69,SW,225,7.0,11.0,49,0.00,,,0.00,Wunderground v.1.13,2013-04-25 00:28:00,
2013-04-24 17:30:00,-999.9,-99.9,29.69,SW,225,7.0,11.0,49,0.00,,,0.00,Wunderground v.1.13,2013-04-25 00:30:00,
2013-04-24 17:32:00,-999.9,-99.9,29.69,SW,225,7.0,11.0,49,0.00,,,0.00,Wunderground v.1.13,2013-04-25 00:32:00,
2013-04-24 17:34:00,-999.9,-99.9,29.69,SW,225,7.0,11.0,49,0.00,,,0.00,Wunderground v.1.13,2013-04-25 00:34:00,
2013-04-24 17:36:00,-999.9,-99.9,29.69,SW,225,7.0,11.0,49,0.00,,,0.00,Wunderground v.1.13,2013-04-25 00:36:00,
2013-04-24 17:38:00,64.5,44.9,29.70,South,180,9.0,13.0,49,0.00,,,0.00,Wunderground v.1.13,2013-04-25 00:38:00,
2013-04-24 17:40:00,64.5,44.9,29.70,South,180,9.0,13.0,49,0.00,,,0.00,Wunderground v.1.13,2013-04-25 00:40:00,
2013-04-24 17:42:00,64.5,44.9,29.70,South,180,9.0,13.0,49,0.00,,,0.00,Wunderground v.1.13,2013-04-25 00:42:00,
2013-04-24 17:44:00,64.5,44.9,29.70,South,180,9.0,13.0,49,0.00,,,0.00,Wunderground v.1.13,2013-04-25 00:44:00,
2013-04-24 17:46:00,64.5,44.9,29.70,South,180,9.0,13.0,49,0.00,,,0.00,Wunderground v.1.13,2013-04-25 00:46:00,
2013-04-24 17:48:00,64.5,44.9,29.70,South,180,9.0,13.0,49,0.00,,,0.00,Wunderground v.1.13,2013-04-25 00:48:00,
2013-04-24 17:50:00,64.5,44.9,29.70,South,180,9.0,13.0,49,0.00,,,0.00,Wunderground v.1.13,2013-04-25 00:50:00,
2013-04-24 17:52:00,64.5,44.9,29.70,South,180,9.0,13.0,49,0.00,,,0.00,Wunderground v.1.13,2013-04-25 00:52:00,
2013-04-24 17:54:00,63.1,43.6,29.70,SSW,203,5.0,7.0,49,0.00,,,0.00,Wunderground v.1.13,2013-04-25 00:54:00,
2013-04-24 17:56:00,63.1,43.6,29.70,SSW,203,5.0,7.0,49,0.00,,,0.00,Wunderground v.1.13,2013-04-25 00:56:00,
2013-04-24 17:58:00,63.1,43.6,29.70,SSW,203,5.0,7.0,49,0.00,,,0.00,Wunderground v.1.13,2013-04-25 00:58:00,
2013-04-24 18:00:00,63.1,43.6,29.70,SSW,203,5.0,7.0,49,0.00,,,0.00,Wunderground v.1.13,2013-04-25 01:00:00,
2013-04-24 18:02:00,63.1,43.6,29.70,SSW,203,5.0,7.0,49,0.00,,,0.00,Wunderground v.1.13,2013-04-25 01:02:00,
2013-04-24 18:04:00,63.1,43.6,29.70,SSW,203,5.0,7.0,49,0.00,,,0.00,Wunderground v.1.13,2013-04-25 01:04:00,
2013-04-24 18:06:00,63.1,43.6,29.70,SSW,203,5.0,7.0,49,0.00,,,0.00,Wunderground v.1.13,2013-04-25 01:06:00,
2013-04-24 18:08:00,60.7,41.4,29.70,SW,225,7.0,11.0,49,0.00,,,0.00,Wunderground v.1.13,2013-04-25 01:08:00,
2013-04-24 18:10:00,60.7,41.4,29.70,SW,225,7.0,11.0,49,0.00,,,0.00,Wunderground v.1.13,2013-04-25 01:10:00,
2013-04-24 18:12:00,60.7,41.4,29.70,SW,225,7.0,11.0,49,0.00,,,0.00,Wunderground v.1.13,2013-04-25 01:12:00,
2013-04-24 18:14:00,60.7,41.4,29.70,SW,225,7.0,11.0,49,0.00,,,0.00,Wunderground v.1.13,2013-04-25 01:14:00,
2013-04-24 18:16:00,60.7,41.4,29.70,SW,225,7.0,11.0,49,0.00,,,0.00,Wunderground v.1.13,2013-04-25 01:16:00,
2013-04-24 18:18:00,60.7,41.4,29.70,SW,225,7.0,11.0,49,0.00,,,0.00,Wunderground v.1.13,2013-04-25 01:18:00,
2013-04-24 18:20:00,60.7,41.4,29.70,SW,225,7.0,11.0,49,0.00,,,0.00,Wunderground v.1.13,2013-04-25 01:20:00,
2013-04-24 18:22:00,60.7,41.4,29.70,SW,225,7.0,11.0,49,0.00,,,0.00,Wunderground v.1.13,2013-04-25 01:22:00,
2013-04-24 18:24:00,61.0,45.2,29.71,WSW,248,8.0,13.0,56,0.00,,,0.00,Wunderground v.1.13,2013-04-25 01:24:00,
2013-04-24 18:26:00,61.0,45.2,29.71,WSW,248,8.0,13.0,56,0.00,,,0.00,Wunderground v.1.13,2013-04-25 01:26:00,
2013-04-24 18:28:00,61.0,45.2,29.71,WSW,248,8.0,13.0,56,0.00,,,0.00,Wunderground v.1.13,2013-04-25 01:28:00,
2013-04-24 18:30:00,61.0,45.2,29.71,WSW,248,8.0,13.0,56,0.00,,,0.00,Wunderground v.1.13,2013-04-25 01:30:00,
2013-04-24 18:32:00,61.0,45.2,29.71,WSW,248,8.0,13.0,56,0.00,,,0.00,Wunderground v.1.13,2013-04-25 01:32:00,
2013-04-24 18:34:00,61.0,45.2,29.71,WSW,248,8.0,13.0,56,0.00,,,0.00,Wunderground v.1.13,2013-04-25 01:34:00,
2013-04-24 18:36:00,61.0,45.2,29.71,WSW,248,8.0,13.0,56,0.00,,,0.00,Wunderground v.1.13,2013-04-25 01:36:00,
2013-04-24 18:38:00,60.4,44.6,29.72,SW,225,3.0,6.0,56,0.00,,,0.00,Wunderground v.1.13,2013-04-25 01:38:00,
2013-04-24 18:40:00,60.4,44.6,29.72,SW,225,3.0,6.0,56,0.00,,,0.00,Wunderground v.1.13,2013-04-25 01:40:00,
2013-04-24 18:42:00,60.4,44.6,29.72,SW,225,3.0,6.0,56,0.00,,,0.00,Wunderground v.1.13,2013-04-25 01:42:00,
2013-04-24 18:44:00,60.4,44.6,29.72,SW,225,3.0,6.0,56,0.00,,,0.00,Wunderground v.1.13,2013-04-25 01:44:00,
2013-04-24 18:46:00,60.4,44.6,29.72,SW,225,3.0,6.0,56,0.00,,,0.00,Wunderground v.1.13,2013-04-25 01:46:00,
2013-04-24 18:48:00,60.4,44.6,29.72,SW,225,3.0,6.0,56,0.00,,,0.00,Wunderground v.1.13,2013-04-25 01:48:00,
2013-04-24 18:50:00,60.4,44.6,29.72,SW,225,3.0,6.0,56,0.00,,,0.00,Wunderground v.1.13,2013-04-25 01:50:00,
2013-04-24 18:52:00,60.4,44.6,29.72,SW,225,3.0,6.0,56,0.00,,,0.00,Wunderground v.1.13,2013-04-25 01:52:00,
2013-04-24 18:54:00,-999.9,-99.9,29.72,SSE,158,3.0,6.0,56,0.00,,,0.00,Wunderground v.1.13,2013-04-25 01:54:00,
2013-04-24 18:56:00,-999.9,-99.9,29.72,SSE,158,3.0,6.0,56,0.00,,,0.00,Wunderground v.1.13,2013-04-25 01:56:00,
2013-04-24 18:58:00,-999.9,-99.9,29.72,SSE,158,3.0,6.0,56,0.00,,,0.00,Wunderground v.1.13,2013-04-25 01:58:00,
2013-04-24 19:00:00,-999.9,-99.9,29.72,SSE,158,3.0,6.0,56,0.00,,,0.00,Wunderground v.1.13,2013-04-25 02:00:00,
2013-04-24 19:02:00,-999.9,-99.9,29.72,SSE,158,3.0,6.0,56,0.00,,,0.00,Wunderground v.1.13,2013-04-25 02:02:00,
2013-04-24 19:04:00,-999.9,-99.9,29.72,SSE,158,3.0,6.0,56,0.00,,,0.00,Wunderground v.1.13,2013-04-25 02:04:00,
2013-04-24 19:06:00,-999.9,-99.9,29.72,SSE,158,3.0,6.0,56,0.00,,,0.00,Wunderground v.1.13,2013-04-25 02:06:00,
2013-04-24 19:08:00,-999.9,-99.9,29.71,SW,225,3.0,6.0,56,0.00,,,0.00,Wunderground v.1.13,2013-04-25 02:08:00,
2013-04-24 19:10:00,-999.9,-99.9,29.71,SW,225,3.0,6.0,56,0.00,,,0.00,Wunderground v.1.13,2013-04-25 02:10:00,
2013-04-24 19:12:00,-999.9,-99.9,29.71,SW,225,3.0,6.0,56,0.00,,,0.00,Wunderground v.1.13,2013-04-25 02:12:00,
2013-04-24 19:14:00,-999.9,-99.9,29.71,SW,225,3.0,6.0,56,0.00,,,0.00,Wunderground v.1.13,2013-04-25 02:14:00,
2013-04-24 19:16:00,-999.9,-99.9,29.71,SW,225,3.0,6.0,56,0.00,,,0.00,Wunderground v.1.13,2013-04-25 02:16:00,
2013-04-24 19:18:00,-999.9,-99.9,29.71,SW,225,3.0,6.0,56,0.00,,,0.00,Wunderground v.1.13,2013-04-25 02:18:00,
2013-04-24 19:20:00,-999.9,-99.9,29.71,SW,225,3.0,6.0,56,0.00,,,0.00,Wunderground v.1.13,2013-04-25 02:20:00,
2013-04-24 19:22:00,-999.9,-99.9,29.71,SW,225,3.0,6.0,56,0.00,,,0.00,Wunderground v.1.13,2013-04-25 02:22:00,
2013-04-24 19:24:00,60.1,44.3,29.71,SSW,203,6.0,8.0,56,0.00,,,0.00,Wunderground v.1.13,2013-04-25 02:24:00,
2013-04-24 19:26:00,60.1,44.3,29.71,SSW,203,6.0,8.0,56,0.00,,,0.00,Wunderground v.1.13,2013-04-25 02:26:00,
2013-04-24 19:28:00,60.1,44.3,29.71,SSW,203,6.0,8.0,56,0.00,,,0.00,Wunderground v.1.13,2013-04-25 02:28:00,
2013-04-24 19:30:00,60.1,44.3,29.71,SSW,203,6.0,8.0,56,0.00,,,0.00,Wunderground v.1.13,2013-04-25 02:30:00,
2013-04-24 19:32:00,60.1,44.3,29.71,SSW,203,6.0,8.0,56,0.00,,,0.00,Wunderground v.1.13,2013-04-25 02:32:00,
2013-04-24 19:34:00,60.1,44.3,29.71,SSW,203,6.0,8.0,56,0.00,,,0.00,Wunderground v.1.13,2013-04-25 02:34:00,
2013-04-24 19:36:00,60.1,44.3,29.71,SSW,203,6.0,8.0,56,0.00,,,0.00,Wunderground v.1.13,2013-04-25 02:36:00,
2013-04-24 19:38:00,-999.9,-99.9,29.71,SW,225,4.0,8.0,56,0.00,,,0.00,Wunderground v.1.13,2013-04-25 02:38:00,
2013-04-24 19:40:00,-999.9,-99.9,29.71,SW,225,4.0,8.0,56,0.00,,,0.00,Wunderground v.1.13,2013-04-25 02:40:00,
2013-04-24 19:42:00,-999.9,-99.9,29.71,SW,225,4.0,8.0,56,0.00,,,0.00,Wunderground v.1.13,2013-04-25 02:42:00,
2013-04-24 19:44:00,-999.9,-99.9,29.71,SW,225,4.0,8.0,56,0.00,,,0.00,Wunderground v.1.13,2013-04-25 02:44:00,
2013-04-24 19:46:00,-999.9,-99.9,29.71,SW,225,4.0,8.0,56,0.00,,,0.00,Wunderground v.1.13,2013-04-25 02:46:00,
2013-04-24 19:48:00,-999.9,-99.9,29.71,SW,225,4.0,8.0,56,0.00,,,0.00,Wunderground v.1.13,2013-04-25 02:48:00,
2013-04-24 19:50:00,-999.9,-99.9,29.71,SW,225,4.0,8.0,56,0.00,,,0.00,Wunderground v.1.13,2013-04-25 02:50:00,
2013-04-24 19:52:00,-999.9,-99.9,29.71,SW,225,4.0,8.0,56,0.00,,,0.00,Wunderground v.1.13,2013-04-25 02:52:00,
2013-04-24 19:54:00,58.4,42.8,29.73,SW,225,8.0,14.0,56,0.00,,,0.00,Wunderground v.1.13,2013-04-25 02:54:00,
2013-04-24 19:56:00,58.4,42.8,29.73,SW,225,8.0,14.0,56,0.00,,,0.00,Wunderground v.1.13,2013-04-25 02:56:00,
2013-04-24 19:58:00,58.4,42.8,29.73,SW,225,8.0,14.0,56,0.00,,,0.00,Wunderground v.1.13,2013-04-25 02:58:00,
2013-04-24 20:00:00,58.4,42.8,29.73,SW,225,8.0,14.0,56,0.00,,,0.00,Wunderground v.1.13,2013-04-25 03:00:00,
2013-04-24 20:04:00,58.4,42.8,29.73,SW,225,8.0,14.0,56,0.00,,,0.00,Wunderground v.1.13,2013-04-25 03:04:00,
2013-04-24 20:06:00,58.4,42.8,29.73,SW,225,8.0,14.0,56,0.00,,,0.00,Wunderground v.1.13,2013-04-25 03:06:00,
2013-04-24 20:08:00,-999.9,-99.9,29.75,South,180,2.0,4.0,57,0.00,,,0.00,Wunderground v.1.13,2013-04-25 03:08:00,
2013-04-24 20:10:00,-999.9,-99.9,29.75,South,180,2.0,4.0,57,0.00,,,0.00,Wunderground v.1.13,2013-04-25 03:10:00,
2013-04-24 20:18:00,-999.9,-99.9,29.75,South,180,2.0,4.0,57,0.00,,,0.00,Wunderground v.1.13,2013-04-25 03:18:00,
2013-04-24 20:20:00,-999.9,-99.9,29.75,South,180,2.0,4.0,57,0.00,,,0.00,Wunderground v.1.13,2013-04-25 03:20:00,
2013-04-24 20:22:00,-999.9,-99.9,29.75,South,180,2.0,4.0,57,0.00,,,0.00,Wunderground v.1.13,2013-04-25 03:22:00,
2013-04-24 20:24:00,-999.9,-99.9,29.76,SE,135,2.0,7.0,57,0.00,,,0.00,Wunderground v.1.13,2013-04-25 03:24:00,
2013-04-24 20:26:00,-999.9,-99.9,29.76,SE,135,2.0,7.0,57,0.00,,,0.00,Wunderground v.1.13,2013-04-25 03:26:00,
2013-04-24 20:28:00,-999.9,-99.9,29.76,SE,135,2.0,7.0,57,0.00,,,0.00,Wunderground v.1.13,2013-04-25 03:28:00,
2013-04-24 20:30:00,-999.9,-99.9,29.76,SE,135,2.0,7.0,57,0.00,,,0.00,Wunderground v.1.13,2013-04-25 03:30:00,
2013-04-24 20:32:00,-999.9,-99.9,29.76,SE,135,2.0,7.0,57,0.00,,,0.00,Wunderground v.1.13,2013-04-25 03:32:00,
2013-04-24 20:34:00,-999.9,-99.9,29.76,SE,135,2.0,7.0,57,0.00,,,0.00,Wunderground v.1.13,2013-04-25 03:34:00,
2013-04-24 20:36:00,-999.9,-99.9,29.76,SE,135,2.0,7.0,57,0.00,,,0.00,Wunderground v.1.13,2013-04-25 03:36:00,
2013-04-24 20:38:00,57.5,43.3,29.76,SSW,203,2.0,5.0,59,0.00,,,0.00,Wunderground v.1.13,2013-04-25 03:38:00,
2013-04-24 20:40:00,57.5,43.3,29.76,SSW,203,2.0,5.0,59,0.00,,,0.00,Wunderground v.1.13,2013-04-25 03:40:00,
2013-04-24 20:42:00,57.5,43.3,29.76,SSW,203,2.0,5.0,59,0.00,,,0.00,Wunderground v.1.13,2013-04-25 03:42:00,
2013-04-24 20:44:00,57.5,43.3,29.76,SSW,203,2.0,5.0,59,0.00,,,0.00,Wunderground v.1.13,2013-04-25 03:44:00,
2013-04-24 20:46:00,57.5,43.3,29.76,SSW,203,2.0,5.0,59,0.00,,,0.00,Wunderground v.1.13,2013-04-25 03:46:00,
2013-04-24 20:48:00,57.5,43.3,29.76,SSW,203,2.0,5.0,59,0.00,,,0.00,Wunderground v.1.13,2013-04-25 03:48:00,
2013-04-24 20:50:00,57.5,43.3,29.76,SSW,203,2.0,5.0,59,0.00,,,0.00,Wunderground v.1.13,2013-04-25 03:50:00,
2013-04-24 20:52:00,57.5,43.3,29.76,SSW,203,2.0,5.0,59,0.00,,,0.00,Wunderground v.1.13,2013-04-25 03:52:00,
2013-04-24 20:54:00,-999.9,-99.9,29.77,SSW,203,1.0,5.0,59,0.00,,,0.00,Wunderground v.1.13,2013-04-25 03:54:00,
2013-04-24 20:56:00,-999.9,-99.9,29.77,SSW,203,1.0,5.0,59,0.00,,,0.00,Wunderground v.1.13,2013-04-25 03:56:00,
2013-04-24 20:58:00,-999.9,-99.9,29.77,SSW,203,1.0,5.0,59,0.00,,,0.00,Wunderground v.1.13,2013-04-25 03:58:00,
2013-04-24 21:00:00,-999.9,-99.9,29.77,SSW,203,1.0,5.0,59,0.00,,,0.00,Wunderground v.1.13,2013-04-25 04:00:00,
2013-04-24 21:02:00,-999.9,-99.9,29.77,SSW,203,1.0,5.0,59,0.00,,,0.00,Wunderground v.1.13,2013-04-25 04:02:00,
2013-04-24 21:04:00,-999.9,-99.9,29.77,SSW,203,1.0,5.0,59,0.00,,,0.00,Wunderground v.1.13,2013-04-25 04:04:00,
2013-04-24 21:06:00,-999.9,-99.9,29.77,SSW,203,1.0,5.0,59,0.00,,,0.00,Wunderground v.1.13,2013-04-25 04:06:00,
2013-04-24 21:08:00,-999.9,-99.9,29.76,SW,225,4.0,10.0,59,0.00,,,0.00,Wunderground v.1.13,2013-04-25 04:08:00,
2013-04-24 21:10:00,-999.9,-99.9,29.76,SW,225,4.0,10.0,59,0.00,,,0.00,Wunderground v.1.13,2013-04-25 04:10:00,
2013-04-24 21:12:00,-999.9,-99.9,29.76,SW,225,4.0,10.0,59,0.00,,,0.00,Wunderground v.1.13,2013-04-25 04:12:00,
2013-04-24 21:14:00,-999.9,-99.9,29.76,SW,225,4.0,10.0,59,0.00,,,0.00,Wunderground v.1.13,2013-04-25 04:14:00,
2013-04-24 21:16:00,-999.9,-99.9,29.76,SW,225,4.0,10.0,59,0.00,,,0.00,Wunderground v.1.13,2013-04-25 04:16:00,
2013-04-24 21:18:00,-999.9,-99.9,29.76,SW,225,4.0,10.0,59,0.00,,,0.00,Wunderground v.1.13,2013-04-25 04:18:00,
2013-04-24 21:20:00,-999.9,-99.9,29.76,SW,225,4.0,10.0,59,0.00,,,0.00,Wunderground v.1.13,2013-04-25 04:20:00,
2013-04-24 21:22:00,-999.9,-99.9,29.76,SW,225,4.0,10.0,59,0.00,,,0.00,Wunderground v.1.13,2013-04-25 04:22:00,
2013-04-24 21:24:00,-999.9,-99.9,29.75,WSW,248,9.0,13.0,59,0.00,,,0.00,Wunderground v.1.13,2013-04-25 04:24:00,
2013-04-24 21:26:00,-999.9,-99.9,29.75,WSW,248,9.0,13.0,59,0.00,,,0.00,Wunderground v.1.13,2013-04-25 04:26:00,
2013-04-24 21:28:00,-999.9,-99.9,29.75,WSW,248,9.0,13.0,59,0.00,,,0.00,Wunderground v.1.13,2013-04-25 04:28:00,
2013-04-24 21:30:00,-999.9,-99.9,29.75,WSW,248,9.0,13.0,59,0.00,,,0.00,Wunderground v.1.13,2013-04-25 04:30:00,
2013-04-24 21:32:00,-999.9,-99.9,29.75,WSW,248,9.0,13.0,59,0.00,,,0.00,Wunderground v.1.13,2013-04-25 04:32:00,
2013-04-24 21:34:00,-999.9,-99.9,29.75,WSW,248,9.0,13.0,59,0.00,,,0.00,Wunderground v.1.13,2013-04-25 04:34:00,
2013-04-24 21:36:00,-999.9,-99.9,29.75,WSW,248,9.0,13.0,59,0.00,,,0.00,Wunderground v.1.13,2013-04-25 04:36:00,
2013-04-24 21:38:00,-999.9,-99.9,29.75,West,270,9.0,14.0,59,0.00,,,0.00,Wunderground v.1.13,2013-04-25 04:38:00,
2013-04-24 21:40:00,-999.9,-99.9,29.75,West,270,9.0,14.0,59,0.00,,,0.00,Wunderground v.1.13,2013-04-25 04:40:00,
2013-04-24 21:42:00,-999.9,-99.9,29.75,West,270,9.0,14.0,59,0.00,,,0.00,Wunderground v.1.13,2013-04-25 04:42:00,
2013-04-24 21:44:00,-999.9,-99.9,29.75,West,270,9.0,14.0,59,0.00,,,0.00,Wunderground v.1.13,2013-04-25 04:44:00,
2013-04-24 21:46:00,-999.9,-99.9,29.75,West,270,9.0,14.0,59,0.00,,,0.00,Wunderground v.1.13,2013-04-25 04:46:00,
2013-04-24 21:48:00,-999.9,-99.9,29.75,West,270,9.0,14.0,59,0.00,,,0.00,Wunderground v.1.13,2013-04-25 04:48:00,
2013-04-24 21:50:00,-999.9,-99.9,29.75,West,270,9.0,14.0,59,0.00,,,0.00,Wunderground v.1.13,2013-04-25 04:50:00,
2013-04-24 21:52:00,-999.9,-99.9,29.75,West,270,9.0,14.0,59,0.00,,,0.00,Wunderground v.1.13,2013-04-25 04:52:00,
2013-04-24 21:54:00,56.2,42.1,29.76,SW,225,7.0,13.0,59,0.00,,,0.00,Wunderground v.1.13,2013-04-25 04:54:00,
2013-04-24 21:56:00,56.2,42.1,29.76,SW,225,7.0,13.0,59,0.00,,,0.00,Wunderground v.1.13,2013-04-25 04:56:00,
2013-04-24 21:58:00,56.2,42.1,29.76,SW,225,7.0,13.0,59,0.00,,,0.00,Wunderground v.1.13,2013-04-25 04:58:00,
2013-04-24 22:00:00,56.2,42.1,29.76,SW,225,7.0,13.0,59,0.00,,,0.00,Wunderground v.1.13,2013-04-25 05:00:00,
2013-04-24 22:02:00,56.2,42.1,29.76,SW,225,7.0,13.0,59,0.00,,,0.00,Wunderground v.1.13,2013-04-25 05:02:00,
2013-04-24 22:04:00,56.2,42.1,29.76,SW,225,7.0,13.0,59,0.00,,,0.00,Wunderground v.1.13,2013-04-25 05:04:00,
2013-04-24 22:06:00,56.2,42.1,29.76,SW,225,7.0,13.0,59,0.00,,,0.00,Wunderground v.1.13,2013-04-25 05:06:00,
2013-04-24 22:08:00,-999.9,-99.9,29.76,SW,225,2.0,5.0,64,0.00,,,0.00,Wunderground v.1.13,2013-04-25 05:08:00,
2013-04-24 22:10:00,-999.9,-99.9,29.76,SW,225,2.0,5.0,64,0.00,,,0.00,Wunderground v.1.13,2013-04-25 05:10:00,
2013-04-24 22:12:00,-999.9,-99.9,29.76,SW,225,2.0,5.0,64,0.00,,,0.00,Wunderground v.1.13,2013-04-25 05:12:00,
2013-04-24 22:14:00,-999.9,-99.9,29.76,SW,225,2.0,5.0,64,0.00,,,0.00,Wunderground v.1.13,2013-04-25 05:14:00,
2013-04-24 22:16:00,-999.9,-99.9,29.76,SW,225,2.0,5.0,64,0.00,,,0.00,Wunderground v.1.13,2013-04-25 05:16:00,
2013-04-24 22:18:00,-999.9,-99.9,29.76,SW,225,2.0,5.0,64,0.00,,,0.00,Wunderground v.1.13,2013-04-25 05:18:00,
2013-04-24 22:20:00,-999.9,-99.9,29.76,SW,225,2.0,5.0,64,0.00,,,0.00,Wunderground v.1.13,2013-04-25 05:20:00,
2013-04-24 22:22:00,-999.9,-99.9,29.76,SW,225,2.0,5.0,64,0.00,,,0.00,Wunderground v.1.13,2013-04-25 05:22:00,
2013-04-24 22:24:00,54.8,42.9,29.76,South,180,4.0,8.0,64,0.00,,,0.00,Wunderground v.1.13,2013-04-25 05:24:00,
2013-04-24 22:26:00,54.8,42.9,29.76,South,180,4.0,8.0,64,0.00,,,0.00,Wunderground v.1.13,2013-04-25 05:26:00,
2013-04-24 22:28:00,54.8,42.9,29.76,South,180,4.0,8.0,64,0.00,,,0.00,Wunderground v.1.13,2013-04-25 05:28:00,
2013-04-24 22:30:00,54.8,42.9,29.76,South,180,4.0,8.0,64,0.00,,,0.00,Wunderground v.1.13,2013-04-25 05:30:00,
2013-04-24 22:32:00,54.8,42.9,29.76,South,180,4.0,8.0,64,0.00,,,0.00,Wunderground v.1.13,2013-04-25 05:32:00,
2013-04-24 22:34:00,54.8,42.9,29.76,South,180,4.0,8.0,64,0.00,,,0.00,Wunderground v.1.13,2013-04-25 05:34:00,
2013-04-24 22:36:00,54.8,42.9,29.76,South,180,4.0,8.0,64,0.00,,,0.00,Wunderground v.1.13,2013-04-25 05:36:00,
2013-04-24 22:38:00,53.9,42.0,29.77,SSW,203,6.0,9.0,64,0.00,,,0.00,Wunderground v.1.13,2013-04-25 05:38:00,
2013-04-24 22:40:00,53.9,42.0,29.77,SSW,203,6.0,9.0,64,0.00,,,0.00,Wunderground v.1.13,2013-04-25 05:40:00,
2013-04-24 22:42:00,53.9,42.0,29.77,SSW,203,6.0,9.0,64,0.00,,,0.00,Wunderground v.1.13,2013-04-25 05:42:00,
2013-04-24 22:44:00,53.9,42.0,29.77,SSW,203,6.0,9.0,64,0.00,,,0.00,Wunderground v.1.13,2013-04-25 05:44:00,
2013-04-24 22:46:00,53.9,42.0,29.77,SSW,203,6.0,9.0,64,0.00,,,0.00,Wunderground v.1.13,2013-04-25 05:46:00,
2013-04-24 22:48:00,53.9,42.0,29.77,SSW,203,6.0,9.0,64,0.00,,,0.00,Wunderground v.1.13,2013-04-25 05:48:00,
2013-04-24 22:50:00,53.9,42.0,29.77,SSW,203,6.0,9.0,64,0.00,,,0.00,Wunderground v.1.13,2013-04-25 05:50:00,
2013-04-24 22:52:00,53.9,42.0,29.77,SSW,203,6.0,9.0,64,0.00,,,0.00,Wunderground v.1.13,2013-04-25 05:52:00,
2013-04-24 22:54:00,53.3,41.4,29.78,SSW,203,4.0,6.0,64,0.00,,,0.00,Wunderground v.1.13,2013-04-25 05:54:00,
2013-04-24 22:56:00,53.3,41.4,29.78,SSW,203,4.0,6.0,64,0.00,,,0.00,Wunderground v.1.13,2013-04-25 05:56:00,
2013-04-24 22:58:00,53.3,41.4,29.78,SSW,203,4.0,6.0,64,0.00,,,0.00,Wunderground v.1.13,2013-04-25 05:58:00,
2013-04-24 23:00:00,53.3,41.4,29.78,SSW,203,4.0,6.0,64,0.00,,,0.00,Wunderground v.1.13,2013-04-25 06:00:00,
2013-04-24 23:02:00,53.3,41.4,29.78,SSW,203,4.0,6.0,64,0.00,,,0.00,Wunderground v.1.13,2013-04-25 06:02:00,
2013-04-24 23:04:00,53.3,41.4,29.78,SSW,203,4.0,6.0,64,0.00,,,0.00,Wunderground v.1.13,2013-04-25 06:04:00,
2013-04-24 23:06:00,53.3,41.4,29.78,SSW,203,4.0,6.0,64,0.00,,,0.00,Wunderground v.1.13,2013-04-25 06:06:00,
2013-04-24 23:08:00,52.8,41.0,29.78,SW,225,3.0,5.0,64,0.00,,,0.00,Wunderground v.1.13,2013-04-25 06:08:00,
2013-04-24 23:10:00,52.8,41.0,29.78,SW,225,3.0,5.0,64,0.00,,,0.00,Wunderground v.1.13,2013-04-25 06:10:00,
2013-04-24 23:12:00,52.8,41.0,29.78,SW,225,3.0,5.0,64,0.00,,,0.00,Wunderground v.1.13,2013-04-25 06:12:00,
2013-04-24 23:14:00,52.8,41.0,29.78,SW,225,3.0,5.0,64,0.00,,,0.00,Wunderground v.1.13,2013-04-25 06:14:00,
2013-04-24 23:16:00,52.8,41.0,29.78,SW,225,3.0,5.0,64,0.00,,,0.00,Wunderground v.1.13,2013-04-25 06:16:00,
2013-04-24 23:18:00,52.8,41.0,29.78,SW,225,3.0,5.0,64,0.00,,,0.00,Wunderground v.1.13,2013-04-25 06:18:00,
2013-04-24 23:20:00,52.8,41.0,29.78,SW,225,3.0,5.0,64,0.00,,,0.00,Wunderground v.1.13,2013-04-25 06:20:00,
2013-04-24 23:22:00,52.8,41.0,29.78,SW,225,3.0,5.0,64,0.00,,,0.00,Wunderground v.1.13,2013-04-25 06:22:00,
2013-04-24 23:24:00,52.5,40.7,29.78,SW,225,5.0,7.0,64,0.00,,,0.00,Wunderground v.1.13,2013-04-25 06:24:00,
2013-04-24 23:26:00,52.5,40.7,29.78,SW,225,5.0,7.0,64,0.00,,,0.00,Wunderground v.1.13,2013-04-25 06:26:00,
2013-04-24 23:28:00,52.5,40.7,29.78,SW,225,5.0,7.0,64,0.00,,,0.00,Wunderground v.1.13,2013-04-25 06:28:00,
2013-04-24 23:30:00,52.5,40.7,29.78,SW,225,5.0,7.0,64,0.00,,,0.00,Wunderground v.1.13,2013-04-25 06:30:00,
2013-04-24 23:32:00,52.5,40.7,29.78,SW,225,5.0,7.0,64,0.00,,,0.00,Wunderground v.1.13,2013-04-25 06:32:00,
2013-04-24 23:34:00,52.5,40.7,29.78,SW,225,5.0,7.0,64,0.00,,,0.00,Wunderground v.1.13,2013-04-25 06:34:00,
2013-04-24 23:36:00,52.5,40.7,29.78,SW,225,5.0,7.0,64,0.00,,,0.00,Wunderground v.1.13,2013-04-25 06:36:00,
2013-04-24 23:38:00,52.2,40.4,29.78,SW,225,3.0,8.0,64,0.00,,,0.00,Wunderground v.1.13,2013-04-25 06:38:00,
2013-04-24 23:40:00,52.2,40.4,29.78,SW,225,3.0,8.0,64,0.00,,,0.00,Wunderground v.1.13,2013-04-25 06:40:00,
2013-04-24 23:42:00,52.2,40.4,29.78,SW,225,3.0,8.0,64,0.00,,,0.00,Wunderground v.1.13,2013-04-25 06:42:00,
2013-04-24 23:44:00,52.2,40.4,29.78,SW,225,3.0,8.0,64,0.00,,,0.00,Wunderground v.1.13,2013-04-25 06:44:00,
2013-04-24 23:46:00,52.2,40.4,29.78,SW,225,3.0,8.0,64,0.00,,,0.00,Wunderground v.1.13,2013-04-25 06:46:00,
2013-04-24 23:48:00,52.2,40.4,29.78,SW,225,3.0,8.0,64,0.00,,,0.00,Wunderground v.1.13,2013-04-25 06:48:00,
2013-04-24 23:50:00,52.2,40.4,29.78,SW,225,3.0,8.0,64,0.00,,,0.00,Wunderground v.1.13,2013-04-25 06:50:00,
2013-04-24 23:52:00,52.2,40.4,29.78,SW,225,3.0,8.0,64,0.00,,,0.00,Wunderground v.1.13,2013-04-25 06:52:00,
2013-04-24 23:54:00,52.0,40.2,29.79,WSW,248,1.0,2.0,64,0.00,,,0.00,Wunderground v.1.13,2013-04-25 06:54:00,
2013-04-24 23:56:00,52.0,40.2,29.79,WSW,248,1.0,2.0,64,0.00,,,0.00,Wunderground v.1.13,2013-04-25 06:56:00,
2013-04-24 23:58:00,52.0,40.2,29.79,WSW,248,1.0,2.0,64,0.00,,,0.00,Wunderground v.1.13,2013-04-25 06:58:00,